| time (UTC) | temp F | wind direction | speed MPH | gust MPH | rain 1hr in | rain 24hr in | rain mn in | humidity % | barometer mb |
| 20260510125108 | 69 | 54 | 5.0 | 13.0 | 0.00 | 0.13 | 0.00 | 74 | 1010.9 |
| 20260510125009 | 69 | 42 | 5.0 | 13.0 | 0.00 | 0.13 | 0.00 | 74 | 1010.9 |
| 20260510124806 | 69 | 108 | 5.0 | 13.0 | 0.00 | 0.13 | 0.00 | 74 | 1010.9 |
| 20260510124508 | 69 | 123 | 5.0 | 13.0 | 0.00 | 0.13 | 0.00 | 73 | 1011.0 |
| 20260510124406 | 69 | 187 | 4.0 | 13.0 | 0.00 | 0.13 | 0.00 | 73 | 1011.0 |
| 20260510124306 | 69 | 108 | 4.0 | 13.0 | 0.00 | 0.13 | 0.00 | 73 | 1011.0 |
| 20260510124206 | 69 | 116 | 3.0 | 11.0 | 0.00 | 0.13 | 0.00 | 73 | 1011.0 |
| 20260510124106 | 69 | 88 | 3.0 | 10.0 | 0.00 | 0.13 | 0.00 | 73 | 1011.0 |
| 20260510124010 | 69 | 168 | 2.0 | 11.0 | 0.00 | 0.13 | 0.00 | 73 | 1011.0 |
| 20260510123907 | 69 | 107 | 3.0 | 6.0 | 0.00 | 0.13 | 0.00 | 74 | 1010.9 |
| 20260510123808 | 69 | 111 | 3.0 | 9.0 | 0.00 | 0.13 | 0.00 | 74 | 1010.9 |
| 20260510123709 | 69 | 134 | 4.0 | 9.0 | 0.00 | 0.13 | 0.00 | 74 | 1010.9 |
| 20260510123607 | 69 | 166 | 4.0 | 10.0 | 0.00 | 0.13 | 0.00 | 74 | 1011.0 |
| 20260510123407 | 69 | 2 | 4.0 | 11.0 | 0.00 | 0.13 | 0.00 | 75 | 1011.0 |
| 20260510123207 | 68 | 303 | 5.0 | 11.0 | 0.00 | 0.13 | 0.00 | 75 | 1011.1 |
| 20260510123107 | 68 | 23 | 6.0 | 11.0 | 0.00 | 0.13 | 0.00 | 75 | 1011.1 |
| 20260510122907 | 68 | 35 | 7.0 | 12.0 | 0.00 | 0.13 | 0.00 | 75 | 1011.1 |
| 20260510122806 | 68 | 54 | 7.0 | 13.0 | 0.00 | 0.13 | 0.00 | 76 | 1011.1 |
| 20260510122707 | 68 | 55 | 7.0 | 13.0 | 0.00 | 0.13 | 0.00 | 76 | 1011.2 |
| 20260510122607 | 68 | 108 | 8.0 | 13.0 | 0.00 | 0.13 | 0.00 | 76 | 1011.0 |
| 20260510122509 | 68 | 36 | 9.0 | 13.0 | 0.00 | 0.13 | 0.00 | 76 | 1011.2 |
| 20260510122406 | 68 | 61 | 9.0 | 13.0 | 0.00 | 0.13 | 0.00 | 75 | 1011.2 |
| 20260510122307 | 68 | 56 | 9.0 | 13.0 | 0.00 | 0.13 | 0.00 | 75 | 1011.2 |
| 20260510122207 | 68 | 52 | 9.0 | 13.0 | 0.00 | 0.13 | 0.00 | 75 | 1011.2 |
| 20260510122106 | 67 | 98 | 9.0 | 13.0 | 0.00 | 0.13 | 0.00 | 76 | 1011.2 |
| 20260510122010 | 67 | 117 | 9.0 | 13.0 | 0.00 | 0.13 | 0.00 | 76 | 1011.2 |
| 20260510121706 | 67 | 71 | 9.0 | 13.0 | 0.00 | 0.13 | 0.00 | 75 | 1011.2 |
| 20260510121606 | 67 | 64 | 9.0 | 13.0 | 0.00 | 0.13 | 0.00 | 75 | 1011.3 |
| 20260510121509 | 67 | 64 | 9.0 | 13.0 | 0.00 | 0.13 | 0.00 | 75 | 1011.2 |
| 20260510121406 | 67 | 50 | 9.0 | 13.0 | 0.00 | 0.13 | 0.00 | 75 | 1011.2 |
| 20260510121206 | 67 | 82 | 9.0 | 16.0 | 0.00 | 0.13 | 0.00 | 76 | 1011.2 |
| 20260510121107 | 67 | 110 | 9.0 | 16.0 | 0.00 | 0.13 | 0.00 | 76 | 1011.2 |
| 20260510120907 | 67 | 45 | 9.0 | 16.0 | 0.00 | 0.13 | 0.00 | 76 | 1011.2 |
| 20260510120807 | 67 | 52 | 9.0 | 16.0 | 0.00 | 0.13 | 0.00 | 75 | 1011.3 |
| 20260510120707 | 67 | 89 | 9.0 | 16.0 | 0.00 | 0.13 | 0.00 | 75 | 1011.4 |
| 20260510120608 | 67 | 74 | 9.0 | 16.0 | 0.00 | 0.13 | 0.00 | 75 | 1011.2 |
| 20260510120509 | 68 | 62 | 9.0 | 16.0 | 0.00 | 0.13 | 0.00 | 75 | 1011.4 |
| 20260510120307 | 68 | 68 | 9.0 | 13.0 | 0.00 | 0.13 | 0.00 | 75 | 1011.5 |
| 20260510120206 | 68 | 66 | 8.0 | 13.0 | 0.00 | 0.13 | 0.00 | 75 | 1011.5 |
| 20260510120107 | 68 | 84 | 7.0 | 13.0 | 0.00 | 0.13 | 0.00 | 74 | 1011.5 |
| 20260510120012 | 68 | 77 | 7.0 | 13.0 | 0.00 | 0.13 | 0.00 | 74 | 1011.5 |
| 20260510115909 | 68 | 68 | 7.0 | 13.0 | 0.00 | 0.31 | 0.00 | 74 | 1011.5 |
| 20260510115807 | 68 | 69 | 6.0 | 13.0 | 0.00 | 0.31 | 0.00 | 73 | 1011.5 |
| 20260510115708 | 68 | 57 | 6.0 | 12.0 | 0.00 | 0.31 | 0.00 | 73 | 1011.4 |
| 20260510115607 | 68 | 73 | 6.0 | 10.0 | 0.00 | 0.31 | 0.00 | 73 | 1011.5 |
| 20260510115508 | 68 | 83 | 5.0 | 10.0 | 0.00 | 0.31 | 0.00 | 73 | 1011.5 |
| 20260510115408 | 68 | 70 | 5.0 | 10.0 | 0.00 | 0.31 | 0.00 | 73 | 1011.5 |
| 20260510115308 | 68 | 74 | 5.0 | 10.0 | 0.00 | 0.31 | 0.00 | 74 | 1011.5 |
| 20260510115207 | 68 | 60 | 5.0 | 10.0 | 0.00 | 0.31 | 0.00 | 74 | 1011.6 |
| 20260510115107 | 68 | 66 | 5.0 | 10.0 | 0.00 | 0.31 | 0.00 | 74 | 1011.5 |
| 20260510115011 | 68 | 54 | 5.0 | 10.0 | 0.00 | 0.31 | 0.00 | 73 | 1011.5 |
| 20260510114809 | 68 | 58 | 5.0 | 10.0 | 0.00 | 0.31 | 0.00 | 74 | 1011.6 |
| 20260510114707 | 68 | 44 | 5.0 | 10.0 | 0.00 | 0.31 | 0.00 | 74 | 1011.5 |
| 20260510114608 | 68 | 47 | 5.0 | 9.0 | 0.00 | 0.31 | 0.00 | 74 | 1011.6 |
| 20260510114509 | 68 | 60 | 5.0 | 9.0 | 0.00 | 0.31 | 0.00 | 75 | 1011.6 |
| 20260510114408 | 67 | 68 | 5.0 | 10.0 | 0.00 | 0.31 | 0.00 | 75 | 1011.6 |
| 20260510114306 | 67 | 66 | 5.0 | 10.0 | 0.00 | 0.31 | 0.00 | 75 | 1011.6 |
| 20260510114206 | 67 | 68 | 5.0 | 10.0 | 0.00 | 0.31 | 0.00 | 75 | 1011.6 |
| 20260510114107 | 67 | 46 | 6.0 | 10.0 | 0.00 | 0.31 | 0.00 | 75 | 1011.7 |
| 20260510114009 | 67 | 59 | 6.0 | 10.0 | 0.00 | 0.31 | 0.00 | 75 | 1011.6 |
| 20260510113905 | 67 | 69 | 6.0 | 10.0 | 0.00 | 0.31 | 0.00 | 75 | 1011.6 |
| 20260510113808 | 67 | 65 | 7.0 | 10.0 | 0.00 | 0.31 | 0.00 | 75 | 1011.6 |
| 20260510113707 | 67 | 89 | 6.0 | 10.0 | 0.00 | 0.31 | 0.00 | 75 | 1011.7 |
| 20260510113607 | 67 | 78 | 7.0 | 10.0 | 0.00 | 0.31 | 0.00 | 76 | 1011.7 |
| 20260510113509 | 67 | 41 | 7.0 | 10.0 | 0.00 | 0.31 | 0.00 | 75 | 1011.7 |
| 20260510113409 | 67 | 78 | 7.0 | 10.0 | 0.00 | 0.31 | 0.00 | 76 | 1011.7 |
| 20260510113306 | 67 | 87 | 8.0 | 10.0 | 0.00 | 0.31 | 0.00 | 76 | 1011.7 |
| 20260510113206 | 67 | 96 | 8.0 | 10.0 | 0.00 | 0.31 | 0.00 | 76 | 1011.7 |
| 20260510112907 | 66 | 68 | 8.0 | 10.0 | 0.00 | 0.31 | 0.00 | 76 | 1011.7 |
| 20260510112807 | 66 | 107 | 8.0 | 10.0 | 0.00 | 0.31 | 0.00 | 76 | 1011.7 |
| 20260510112707 | 66 | 73 | 8.0 | 10.0 | 0.00 | 0.31 | 0.00 | 76 | 1011.7 |
| 20260510112607 | 66 | 66 | 8.0 | 10.0 | 0.00 | 0.31 | 0.00 | 76 | 1011.7 |
| 20260510112508 | 66 | 78 | 8.0 | 10.0 | 0.00 | 0.31 | 0.00 | 76 | 1011.7 |
| 20260510112406 | 66 | 73 | 7.0 | 10.0 | 0.00 | 0.31 | 0.00 | 76 | 1011.7 |
| 20260510112307 | 66 | 63 | 7.0 | 10.0 | 0.00 | 0.31 | 0.00 | 76 | 1011.8 |
| 20260510112206 | 66 | 64 | 7.0 | 10.0 | 0.00 | 0.31 | 0.00 | 77 | 1011.7 |
| 20260510112010 | 66 | 65 | 7.0 | 10.0 | 0.00 | 0.31 | 0.00 | 78 | 1011.7 |
| 20260510111907 | 66 | 66 | 7.0 | 10.0 | 0.00 | 0.31 | 0.00 | 78 | 1011.8 |
| 20260510111807 | 66 | 94 | 7.0 | 10.0 | 0.00 | 0.31 | 0.00 | 78 | 1011.8 |
| 20260510111507 | 66 | 78 | 7.0 | 10.0 | 0.00 | 0.31 | 0.00 | 78 | 1011.8 |
| 20260510111407 | 66 | 67 | 7.0 | 10.0 | 0.00 | 0.31 | 0.00 | 78 | 1011.8 |
| 20260510111306 | 66 | 44 | 8.0 | 10.0 | 0.00 | 0.31 | 0.00 | 78 | 1011.8 |
| 20260510111107 | 66 | 100 | 8.0 | 11.0 | 0.00 | 0.31 | 0.00 | 78 | 1011.8 |
| 20260510111008 | 66 | 75 | 8.0 | 11.0 | 0.00 | 0.31 | 0.00 | 78 | 1011.8 |
| 20260510110907 | 66 | 41 | 8.0 | 11.0 | 0.00 | 0.31 | 0.00 | 78 | 1011.9 |
| 20260510110807 | 66 | 73 | 8.0 | 11.0 | 0.00 | 0.31 | 0.00 | 78 | 1011.9 |
| 20260510110708 | 66 | 75 | 7.0 | 11.0 | 0.00 | 0.31 | 0.00 | 78 | 1011.9 |
| 20260510110606 | 66 | 69 | 7.0 | 11.0 | 0.00 | 0.31 | 0.00 | 78 | 1011.8 |
| 20260510110306 | 66 | 92 | 7.0 | 11.0 | 0.00 | 0.31 | 0.00 | 78 | 1011.9 |
| 20260510110207 | 66 | 69 | 7.0 | 11.0 | 0.00 | 0.31 | 0.00 | 77 | 1012.0 |
| 20260510105909 | 66 | 71 | 7.0 | 11.0 | 0.00 | 0.43 | 0.00 | 78 | 1012.0 |
| 20260510105806 | 66 | 63 | 7.0 | 11.0 | 0.00 | 0.43 | 0.00 | 78 | 1012.0 |
| 20260510105707 | 66 | 46 | 7.0 | 11.0 | 0.00 | 0.43 | 0.00 | 78 | 1012.0 |
| 20260510105609 | 66 | 77 | 8.0 | 11.0 | 0.00 | 0.43 | 0.00 | 78 | 1012.0 |
| 20260510105508 | 66 | 87 | 8.0 | 11.0 | 0.00 | 0.43 | 0.00 | 78 | 1011.9 |
| 20260510105408 | 66 | 76 | 8.0 | 11.0 | 0.00 | 0.43 | 0.00 | 77 | 1012.0 |
| 20260510105308 | 66 | 70 | 8.0 | 11.0 | 0.00 | 0.43 | 0.00 | 78 | 1012.0 |
| 20260510105206 | 66 | 86 | 8.0 | 10.0 | 0.00 | 0.43 | 0.00 | 77 | 1012.1 |
| 20260510104907 | 66 | 85 | 8.0 | 11.0 | 0.00 | 0.43 | 0.00 | 77 | 1012.1 |
| 20260510104807 | 66 | 77 | 8.0 | 11.0 | 0.00 | 0.43 | 0.00 | 77 | 1012.1 |
| 20260510104607 | 66 | 84 | 8.0 | 11.0 | 0.00 | 0.43 | 0.00 | 77 | 1012.2 |
| 20260510104511 | 66 | 73 | 8.0 | 11.0 | 0.00 | 0.43 | 0.00 | 77 | 1012.1 |
| 20260510104407 | 66 | 77 | 8.0 | 11.0 | 0.00 | 0.43 | 0.00 | 77 | 1012.2 |
| 20260510104307 | 66 | 60 | 8.0 | 11.0 | 0.00 | 0.43 | 0.00 | 77 | 1012.2 |
| 20260510104208 | 66 | 73 | 7.0 | 11.0 | 0.00 | 0.43 | 0.00 | 77 | 1012.2 |
| 20260510104011 | 66 | 74 | 7.0 | 10.0 | 0.00 | 0.43 | 0.00 | 77 | 1012.1 |
| 20260510103909 | 66 | 49 | 7.0 | 10.0 | 0.00 | 0.43 | 0.00 | 77 | 1012.1 |
| 20260510103808 | 66 | 69 | 6.0 | 10.0 | 0.00 | 0.43 | 0.00 | 76 | 1012.2 |
| 20260510103707 | 66 | 35 | 6.0 | 10.0 | 0.00 | 0.43 | 0.00 | 76 | 1012.2 |
| 20260510103608 | 66 | 63 | 5.0 | 10.0 | 0.00 | 0.43 | 0.00 | 75 | 1012.3 |
| 20260510103508 | 66 | 71 | 5.0 | 10.0 | 0.00 | 0.43 | 0.00 | 76 | 1012.2 |
| 20260510103407 | 67 | 61 | 5.0 | 10.0 | 0.00 | 0.43 | 0.00 | 76 | 1012.2 |
| 20260510103307 | 66 | 74 | 5.0 | 9.0 | 0.00 | 0.43 | 0.00 | 76 | 1012.1 |
| 20260510103107 | 66 | 100 | 5.0 | 9.0 | 0.00 | 0.43 | 0.00 | 76 | 1012.1 |
| 20260510103009 | 66 | 20 | 6.0 | 9.0 | 0.00 | 0.43 | 0.00 | 76 | 1012.1 |
| 20260510102908 | 66 | 77 | 6.0 | 9.0 | 0.00 | 0.43 | 0.00 | 77 | 1012.1 |
| 20260510102707 | 66 | 44 | 6.0 | 9.0 | 0.00 | 0.43 | 0.00 | 76 | 1012.2 |
| 20260510102609 | 66 | 60 | 6.0 | 9.0 | 0.00 | 0.43 | 0.00 | 76 | 1012.2 |
| 20260510102507 | 66 | 63 | 6.0 | 9.0 | 0.00 | 0.43 | 0.00 | 76 | 1012.2 |
| 20260510102408 | 66 | 59 | 6.0 | 9.0 | 0.00 | 0.43 | 0.00 | 76 | 1012.2 |
| 20260510102307 | 66 | 52 | 6.0 | 9.0 | 0.00 | 0.43 | 0.00 | 76 | 1012.2 |
| 20260510102207 | 66 | 52 | 6.0 | 9.0 | 0.00 | 0.43 | 0.00 | 76 | 1012.1 |
| 20260510102107 | 66 | 49 | 6.0 | 9.0 | 0.00 | 0.43 | 0.00 | 76 | 1012.1 |
| 20260510102009 | 66 | 68 | 6.0 | 9.0 | 0.00 | 0.43 | 0.00 | 77 | 1012.3 |
| 20260510101707 | 66 | 60 | 7.0 | 10.0 | 0.00 | 0.43 | 0.00 | 76 | 1012.4 |
| 20260510101608 | 66 | 58 | 7.0 | 11.0 | 0.00 | 0.43 | 0.00 | 76 | 1012.3 |
| 20260510101508 | 66 | 56 | 7.0 | 11.0 | 0.00 | 0.43 | 0.00 | 77 | 1012.3 |
| 20260510101408 | 66 | 73 | 7.0 | 11.0 | 0.00 | 0.43 | 0.00 | 77 | 1012.3 |
| 20260510101308 | 66 | 46 | 7.0 | 11.0 | 0.00 | 0.43 | 0.00 | 77 | 1012.3 |
| 20260510101208 | 66 | 61 | 7.0 | 11.0 | 0.00 | 0.43 | 0.00 | 77 | 1012.4 |
| 20260510101107 | 66 | 35 | 7.0 | 11.0 | 0.00 | 0.43 | 0.00 | 77 | 1012.3 |
| 20260510101008 | 65 | 60 | 7.0 | 11.0 | 0.00 | 0.43 | 0.00 | 77 | 1012.3 |
| 20260510100908 | 65 | 46 | 7.0 | 11.0 | 0.00 | 0.43 | 0.00 | 77 | 1012.3 |
| 20260510100808 | 65 | 59 | 8.0 | 11.0 | 0.00 | 0.43 | 0.00 | 77 | 1012.3 |
| 20260510100707 | 65 | 83 | 8.0 | 11.0 | 0.00 | 0.43 | 0.00 | 77 | 1012.4 |
| 20260510100608 | 65 | 60 | 8.0 | 11.0 | 0.00 | 0.43 | 0.00 | 77 | 1012.3 |
| 20260510100507 | 65 | 62 | 8.0 | 11.0 | 0.00 | 0.43 | 0.00 | 77 | 1012.3 |
| 20260510100408 | 65 | 63 | 8.0 | 11.0 | 0.00 | 0.43 | 0.00 | 77 | 1012.3 |
| 20260510100307 | 65 | 39 | 8.0 | 11.0 | 0.00 | 0.43 | 0.00 | 77 | 1012.3 |
| 20260510100207 | 65 | 61 | 7.0 | 11.0 | 0.00 | 0.43 | 0.00 | 77 | 1012.4 |
| 20260510100108 | 65 | 64 | 7.0 | 10.0 | 0.00 | 0.43 | 0.00 | 77 | 1012.4 |
| 20260510100010 | 65 | 44 | 7.0 | 10.0 | 0.00 | 0.43 | 0.00 | 77 | 1012.4 |
| 20260510095809 | 65 | 75 | 7.0 | 10.0 | 0.00 | 0.50 | 0.00 | 77 | 1012.4 |
| 20260510095708 | 65 | 56 | 7.0 | 11.0 | 0.00 | 0.50 | 0.00 | 77 | 1012.4 |
| 20260510095607 | 65 | 52 | 7.0 | 11.0 | 0.00 | 0.50 | 0.00 | 78 | 1012.4 |
| 20260510095407 | 65 | 58 | 7.0 | 11.0 | 0.00 | 0.50 | 0.00 | 78 | 1012.5 |
| 20260510095306 | 65 | 59 | 7.0 | 11.0 | 0.00 | 0.50 | 0.00 | 78 | 1012.4 |
| 20260510095207 | 65 | 46 | 7.0 | 11.0 | 0.00 | 0.50 | 0.00 | 78 | 1012.5 |
| 20260510095108 | 65 | 58 | 7.0 | 11.0 | 0.00 | 0.50 | 0.00 | 79 | 1012.4 |
| 20260510095010 | 65 | 65 | 7.0 | 11.0 | 0.00 | 0.50 | 0.00 | 79 | 1012.5 |
| 20260510094906 | 65 | 28 | 7.0 | 11.0 | 0.00 | 0.50 | 0.00 | 79 | 1012.5 |
| 20260510094808 | 65 | 56 | 7.0 | 11.0 | 0.00 | 0.50 | 0.00 | 80 | 1012.4 |
| 20260510094706 | 65 | 16 | 7.0 | 10.0 | 0.00 | 0.50 | 0.00 | 79 | 1012.5 |
| 20260510094608 | 65 | 48 | 7.0 | 10.0 | 0.00 | 0.50 | 0.00 | 79 | 1012.5 |
| 20260510094510 | 65 | 49 | 6.0 | 10.0 | 0.00 | 0.50 | 0.00 | 79 | 1012.5 |
| 20260510094207 | 65 | 54 | 6.0 | 10.0 | 0.00 | 0.50 | 0.00 | 78 | 1012.5 |
| 20260510094009 | 66 | 52 | 5.0 | 10.0 | 0.00 | 0.50 | 0.00 | 78 | 1012.6 |
| 20260510093906 | 66 | 58 | 4.0 | 10.0 | 0.00 | 0.50 | 0.00 | 77 | 1012.6 |
| 20260510093706 | 66 | 56 | 4.0 | 10.0 | 0.00 | 0.50 | 0.00 | 78 | 1012.6 |
| 20260510093608 | 66 | 44 | 4.0 | 10.0 | 0.00 | 0.50 | 0.00 | 78 | 1012.6 |
| 20260510093509 | 66 | 31 | 4.0 | 10.0 | 0.00 | 0.50 | 0.00 | 78 | 1012.6 |
| 20260510093407 | 66 | 31 | 4.0 | 10.0 | 0.00 | 0.50 | 0.00 | 78 | 1012.6 |
| 20260510093307 | 66 | 46 | 5.0 | 10.0 | 0.00 | 0.50 | 0.00 | 78 | 1012.6 |
| 20260510093207 | 66 | 12 | 5.0 | 10.0 | 0.00 | 0.50 | 0.00 | 79 | 1012.7 |
| 20260510093107 | 66 | 51 | 5.0 | 10.0 | 0.00 | 0.50 | 0.00 | 79 | 1012.6 |
| 20260510093009 | 65 | 62 | 5.0 | 10.0 | 0.00 | 0.50 | 0.00 | 78 | 1012.6 |
| 20260510092907 | 65 | 66 | 5.0 | 10.0 | 0.00 | 0.50 | 0.00 | 78 | 1012.7 |
| 20260510092808 | 65 | 44 | 5.0 | 9.0 | 0.00 | 0.50 | 0.00 | 78 | 1012.7 |
| 20260510092707 | 66 | 56 | 5.0 | 9.0 | 0.00 | 0.50 | 0.00 | 78 | 1012.7 |
| 20260510092609 | 66 | 52 | 5.0 | 9.0 | 0.00 | 0.50 | 0.00 | 78 | 1012.7 |
| 20260510092509 | 66 | 38 | 5.0 | 8.0 | 0.00 | 0.50 | 0.00 | 78 | 1012.7 |
| 20260510092407 | 66 | 46 | 5.0 | 8.0 | 0.00 | 0.50 | 0.00 | 77 | 1012.8 |
| 20260510092308 | 66 | 56 | 4.0 | 8.0 | 0.00 | 0.50 | 0.00 | 77 | 1012.8 |
| 20260510092208 | 66 | 61 | 4.0 | 8.0 | 0.00 | 0.50 | 0.00 | 78 | 1012.7 |
| 20260510092109 | 66 | 42 | 4.0 | 8.0 | 0.00 | 0.50 | 0.00 | 77 | 1012.7 |
| 20260510092010 | 66 | 34 | 4.0 | 8.0 | 0.00 | 0.50 | 0.00 | 77 | 1012.7 |
| 20260510091908 | 66 | 29 | 4.0 | 8.0 | 0.00 | 0.50 | 0.00 | 77 | 1012.7 |
| 20260510091808 | 66 | 54 | 4.0 | 8.0 | 0.00 | 0.50 | 0.00 | 77 | 1012.7 |
| 20260510091707 | 66 | 60 | 4.0 | 8.0 | 0.00 | 0.50 | 0.00 | 77 | 1012.7 |
| 20260510091608 | 66 | 101 | 4.0 | 8.0 | 0.00 | 0.50 | 0.00 | 77 | 1012.7 |
| 20260510091307 | 66 | 68 | 3.0 | 8.0 | 0.00 | 0.50 | 0.00 | 76 | 1012.7 |
| 20260510091207 | 66 | 73 | 3.0 | 7.0 | 0.00 | 0.50 | 0.00 | 77 | 1012.7 |
| 20260510091108 | 66 | 96 | 3.0 | 7.0 | 0.00 | 0.50 | 0.00 | 76 | 1012.7 |
| 20260510091009 | 66 | 60 | 3.0 | 7.0 | 0.00 | 0.50 | 0.00 | 76 | 1012.7 |
| 20260510090909 | 66 | 69 | 3.0 | 6.0 | 0.00 | 0.50 | 0.00 | 76 | 1012.7 |
| 20260510090709 | 66 | 58 | 3.0 | 6.0 | 0.00 | 0.50 | 0.00 | 77 | 1012.7 |
| 20260510090608 | 66 | 42 | 3.0 | 6.0 | 0.00 | 0.50 | 0.00 | 77 | 1012.7 |
| 20260510090509 | 66 | 37 | 3.0 | 6.0 | 0.00 | 0.50 | 0.00 | 77 | 1012.7 |
| 20260510090407 | 66 | 43 | 3.0 | 6.0 | 0.00 | 0.50 | 0.00 | 76 | 1012.7 |
| 20260510090311 | 66 | 69 | 3.0 | 6.0 | 0.00 | 0.50 | 0.00 | 77 | 1012.7 |
| 20260510090210 | 66 | 68 | 3.0 | 6.0 | 0.00 | 0.50 | 0.00 | 76 | 1012.7 |
| 20260510090011 | 66 | 70 | 3.0 | 6.0 | 0.00 | 0.50 | 0.00 | 76 | 1012.7 |
| 20260510085908 | 66 | 56 | 3.0 | 6.0 | 0.00 | 0.69 | 0.00 | 75 | 1012.7 |
| 20260510085808 | 66 | 80 | 3.0 | 6.0 | 0.00 | 0.69 | 0.00 | 75 | 1012.7 |
| 20260510085608 | 66 | 73 | 3.0 | 6.0 | 0.00 | 0.69 | 0.00 | 76 | 1012.6 |
| 20260510085510 | 66 | 75 | 3.0 | 6.0 | 0.00 | 0.69 | 0.00 | 76 | 1012.7 |
| 20260510085407 | 66 | 62 | 3.0 | 6.0 | 0.00 | 0.69 | 0.00 | 76 | 1012.7 |
| 20260510085307 | 66 | 62 | 3.0 | 6.0 | 0.00 | 0.69 | 0.00 | 76 | 1012.7 |
| 20260510085208 | 66 | 63 | 3.0 | 6.0 | 0.00 | 0.69 | 0.00 | 77 | 1012.8 |
| 20260510085105 | 66 | 62 | 3.0 | 6.0 | 0.00 | 0.69 | 0.00 | 76 | 1012.8 |
| 20260510084908 | 66 | 72 | 3.0 | 6.0 | 0.00 | 0.69 | 0.00 | 76 | 1012.9 |
| 20260510084808 | 66 | 97 | 3.0 | 4.0 | 0.00 | 0.69 | 0.00 | 76 | 1012.9 |
| 20260510084707 | 66 | 77 | 3.0 | 4.0 | 0.00 | 0.69 | 0.00 | 78 | 1012.9 |
| 20260510084608 | 66 | 66 | 3.0 | 6.0 | 0.00 | 0.69 | 0.00 | 77 | 1012.9 |
| 20260510084406 | 66 | 83 | 2.0 | 6.0 | 0.00 | 0.69 | 0.00 | 77 | 1012.8 |
| 20260510084308 | 66 | 54 | 2.0 | 6.0 | 0.00 | 0.69 | 0.00 | 77 | 1012.8 |
| 20260510084107 | 66 | 71 | 2.0 | 6.0 | 0.00 | 0.69 | 0.00 | 77 | 1013.0 |
| 20260510084011 | 66 | 73 | 2.0 | 6.0 | 0.00 | 0.69 | 0.00 | 77 | 1012.9 |
| 20260510083907 | 66 | 72 | 2.0 | 6.0 | 0.00 | 0.69 | 0.00 | 77 | 1013.0 |
| 20260510083807 | 66 | 81 | 2.0 | 6.0 | 0.00 | 0.69 | 0.00 | 77 | 1013.0 |
| 20260510083708 | 66 | 72 | 2.0 | 4.0 | 0.00 | 0.69 | 0.00 | 77 | 1013.0 |
| 20260510083608 | 66 | 20 | 2.0 | 4.0 | 0.00 | 0.69 | 0.00 | 77 | 1013.0 |
| 20260510083510 | 66 | 20 | 2.0 | 4.0 | 0.00 | 0.69 | 0.00 | 77 | 1013.0 |
| 20260510083407 | 66 | 18 | 2.0 | 4.0 | 0.00 | 0.69 | 0.00 | 76 | 1013.0 |
| 20260510083308 | 66 | 21 | 2.0 | 4.0 | 0.00 | 0.69 | 0.00 | 76 | 1013.0 |
| 20260510083207 | 66 | 51 | 2.0 | 4.0 | 0.00 | 0.69 | 0.00 | 76 | 1013.0 |
| 20260510082907 | 66 | 75 | 2.0 | 4.0 | 0.00 | 0.69 | 0.00 | 77 | 1012.9 |
| 20260510082807 | 66 | 77 | 2.0 | 4.0 | 0.00 | 0.69 | 0.00 | 77 | 1012.9 |
| 20260510082607 | 66 | 86 | 2.0 | 3.0 | 0.00 | 0.69 | 0.00 | 77 | 1013.0 |
| 20260510082508 | 66 | 86 | 2.0 | 4.0 | 0.00 | 0.69 | 0.00 | 77 | 1012.9 |
| 20260510082308 | 66 | 73 | 2.0 | 4.0 | 0.00 | 0.69 | 0.00 | 77 | 1013.0 |
| 20260510082208 | 66 | 73 | 2.0 | 4.0 | 0.00 | 0.69 | 0.00 | 76 | 1013.0 |
| 20260510082106 | 66 | 73 | 2.0 | 4.0 | 0.00 | 0.69 | 0.00 | 76 | 1013.0 |
| 20260510082010 | 66 | 73 | 3.0 | 4.0 | 0.00 | 0.69 | 0.00 | 76 | 1012.9 |
| 20260510081907 | 66 | 73 | 3.0 | 6.0 | 0.00 | 0.69 | 0.00 | 76 | 1012.9 |
| 20260510081808 | 66 | 73 | 3.0 | 6.0 | 0.00 | 0.69 | 0.00 | 76 | 1012.9 |
| 20260510081609 | 66 | 82 | 2.0 | 6.0 | 0.00 | 0.69 | 0.00 | 76 | 1012.9 |
| 20260510081408 | 66 | 87 | 2.0 | 6.0 | 0.00 | 0.69 | 0.00 | 75 | 1012.8 |
| 20260510081308 | 66 | 112 | 2.0 | 6.0 | 0.00 | 0.69 | 0.00 | 75 | 1012.8 |
| 20260510081207 | 66 | 89 | 2.0 | 6.0 | 0.00 | 0.69 | 0.00 | 75 | 1012.9 |
| 20260510081109 | 66 | 89 | 2.0 | 6.0 | 0.00 | 0.69 | 0.00 | 75 | 1012.8 |
| 20260510080907 | 67 | 91 | 2.0 | 4.0 | 0.00 | 0.69 | 0.00 | 74 | 1012.9 |
| 20260510080707 | 67 | 91 | 2.0 | 4.0 | 0.00 | 0.69 | 0.00 | 73 | 1012.8 |
| 20260510080606 | 67 | 91 | 2.0 | 4.0 | 0.00 | 0.69 | 0.00 | 73 | 1012.9 |
| 20260510080508 | 67 | 102 | 2.0 | 4.0 | 0.00 | 0.69 | 0.00 | 72 | 1012.9 |
| 20260510080406 | 67 | 60 | 2.0 | 4.0 | 0.00 | 0.69 | 0.00 | 73 | 1012.9 |
| 20260510080307 | 67 | 60 | 2.0 | 4.0 | 0.00 | 0.69 | 0.00 | 73 | 1012.9 |
| 20260510080208 | 67 | 131 | 2.0 | 4.0 | 0.00 | 0.69 | 0.00 | 73 | 1012.9 |
| 20260510080108 | 67 | 113 | 2.0 | 4.0 | 0.00 | 0.69 | 0.00 | 73 | 1012.9 |
| 20260510080010 | 67 | 117 | 2.0 | 4.0 | 0.00 | 0.69 | 0.00 | 73 | 1013.0 |
| 20260510075907 | 67 | 117 | 2.0 | 4.0 | 0.00 | 0.77 | 0.00 | 73 | 1013.0 |
| 20260510075805 | 67 | 117 | 2.0 | 4.0 | 0.00 | 0.77 | 0.00 | 73 | 1013.0 |
| 20260510075707 | 67 | 109 | 2.0 | 4.0 | 0.00 | 0.77 | 0.00 | 72 | 1013.0 |
| 20260510075608 | 67 | 158 | 2.0 | 4.0 | 0.00 | 0.77 | 0.00 | 72 | 1013.0 |
| 20260510075508 | 67 | 75 | 2.0 | 4.0 | 0.00 | 0.77 | 0.00 | 72 | 1013.0 |
| 20260510075408 | 67 | 76 | 2.0 | 4.0 | 0.00 | 0.77 | 0.00 | 72 | 1013.0 |
| 20260510075306 | 67 | 106 | 2.0 | 4.0 | 0.00 | 0.77 | 0.00 | 71 | 1013.0 |
| 20260510075207 | 67 | 106 | 2.0 | 4.0 | 0.00 | 0.77 | 0.00 | 71 | 1013.0 |
| 20260510075104 | 67 | 152 | 1.0 | 4.0 | 0.00 | 0.77 | 0.00 | 71 | 1013.0 |
| 20260510075010 | 67 | 108 | 1.0 | 4.0 | 0.00 | 0.77 | 0.00 | 71 | 1013.0 |
| 20260510074909 | 67 | 99 | 1.0 | 3.0 | 0.00 | 0.77 | 0.00 | 71 | 1013.0 |
| 20260510074609 | 67 | 103 | 1.0 | 3.0 | 0.00 | 0.77 | 0.00 | 71 | 1013.0 |
| 20260510074407 | 67 | 103 | 1.0 | 3.0 | 0.00 | 0.77 | 0.00 | 73 | 1013.0 |
| 20260510074309 | 67 | 103 | 0.0 | 3.0 | 0.00 | 0.77 | 0.00 | 73 | 1013.0 |
| 20260510074207 | 67 | 103 | 0.0 | 3.0 | 0.00 | 0.77 | 0.00 | 73 | 1013.0 |
| 20260510074107 | 67 | 268 | 1.0 | 2.0 | 0.00 | 0.77 | 0.00 | 73 | 1013.0 |
| 20260510074010 | 67 | 224 | 1.0 | 2.0 | 0.00 | 0.77 | 0.00 | 73 | 1013.0 |
| 20260510073907 | 67 | 224 | 1.0 | 3.0 | 0.00 | 0.77 | 0.00 | 73 | 1013.0 |
| 20260510073808 | 67 | 224 | 1.0 | 3.0 | 0.00 | 0.77 | 0.00 | 73 | 1013.0 |
| 20260510073707 | 67 | 120 | 1.0 | 3.0 | 0.00 | 0.77 | 0.00 | 73 | 1013.0 |
| 20260510073607 | 67 | 120 | 1.0 | 3.0 | 0.00 | 0.77 | 0.00 | 74 | 1013.1 |
| 20260510073510 | 66 | 120 | 1.0 | 3.0 | 0.00 | 0.77 | 0.00 | 74 | 1013.0 |
| 20260510073407 | 66 | 120 | 1.0 | 3.0 | 0.00 | 0.77 | 0.00 | 74 | 1013.1 |
| 20260510073308 | 66 | 121 | 1.0 | 3.0 | 0.00 | 0.77 | 0.00 | 74 | 1013.1 |
| 20260510073207 | 66 | 121 | 1.0 | 3.0 | 0.00 | 0.77 | 0.00 | 74 | 1013.0 |
| 20260510073107 | 66 | 121 | 1.0 | 3.0 | 0.00 | 0.77 | 0.00 | 74 | 1013.1 |
| 20260510072906 | 66 | 120 | 1.0 | 3.0 | 0.00 | 0.77 | 0.00 | 76 | 1013.1 |
| 20260510072809 | 66 | 121 | 1.0 | 3.0 | 0.00 | 0.77 | 0.00 | 76 | 1013.1 |
| 20260510072708 | 66 | 121 | 1.0 | 3.0 | 0.00 | 0.77 | 0.00 | 76 | 1013.0 |
| 20260510072608 | 66 | 121 | 1.0 | 3.0 | 0.00 | 0.77 | 0.00 | 76 | 1013.0 |
| 20260510072508 | 66 | 121 | 1.0 | 3.0 | 0.00 | 0.77 | 0.00 | 76 | 1013.1 |
| 20260510072407 | 66 | 121 | 1.0 | 3.0 | 0.00 | 0.77 | 0.00 | 76 | 1013.1 |
| 20260510072309 | 66 | 121 | 0.0 | 3.0 | 0.00 | 0.77 | 0.00 | 77 | 1013.0 |
| 20260510072107 | 66 | 106 | 0.0 | 2.0 | 0.00 | 0.77 | 0.00 | 78 | 1013.1 |
| 20260510072009 | 66 | 53 | 0.0 | 2.0 | 0.00 | 0.77 | 0.00 | 79 | 1013.0 |
| 20260510071908 | 65 | 53 | 0.0 | 0.0 | 0.00 | 0.77 | 0.00 | 79 | 1013.0 |
| 20260510071808 | 65 | 53 | 0.0 | 0.0 | 0.00 | 0.77 | 0.00 | 79 | 1013.0 |
| 20260510071607 | 65 | 53 | 0.0 | 2.0 | 0.00 | 0.77 | 0.00 | 80 | 1013.1 |
| 20260510071509 | 65 | 53 | 0.0 | 2.0 | 0.00 | 0.77 | 0.00 | 80 | 1013.0 |
| 20260510071408 | 65 | 53 | 0.0 | 2.0 | 0.00 | 0.77 | 0.00 | 80 | 1013.0 |
| 20260510071307 | 64 | 53 | 0.0 | 2.0 | 0.00 | 0.77 | 0.00 | 80 | 1013.0 |
| 20260510071207 | 64 | 53 | 0.0 | 2.0 | 0.00 | 0.77 | 0.00 | 80 | 1013.0 |
| 20260510071109 | 64 | 53 | 0.0 | 2.0 | 0.00 | 0.77 | 0.00 | 80 | 1013.0 |
| 20260510071010 | 64 | 53 | 0.0 | 2.0 | 0.00 | 0.77 | 0.00 | 81 | 1013.0 |
| 20260510070907 | 64 | 53 | 0.0 | 2.0 | 0.00 | 0.77 | 0.00 | 81 | 1012.9 |
| 20260510070808 | 64 | 53 | 0.0 | 2.0 | 0.00 | 0.77 | 0.00 | 81 | 1012.9 |
| 20260510070706 | 64 | 53 | 0.0 | 1.0 | 0.00 | 0.77 | 0.00 | 81 | 1013.0 |
| 20260510070607 | 63 | 53 | 0.0 | 1.0 | 0.00 | 0.77 | 0.00 | 81 | 1013.0 |
| 20260510070407 | 63 | 53 | 0.0 | 1.0 | 0.00 | 0.77 | 0.00 | 81 | 1012.9 |
| 20260510070309 | 63 | 53 | 0.0 | 1.0 | 0.00 | 0.77 | 0.00 | 82 | 1012.9 |
| 20260510070008 | 63 | 53 | 0.0 | 2.0 | 0.00 | 0.77 | 0.00 | 82 | 1012.9 |
| 20260510065906 | 63 | 53 | 0.0 | 2.0 | 0.00 | 0.77 | 0.00 | 82 | 1012.9 |
| 20260510065507 | 63 | 53 | 0.0 | 2.0 | 0.00 | 0.77 | 0.00 | 82 | 1012.9 |
| 20260510065405 | 63 | 53 | 0.0 | 1.0 | 0.00 | 0.77 | 0.00 | 83 | 1012.8 |
| 20260510065308 | 63 | 53 | 0.0 | 1.0 | 0.00 | 0.77 | 0.00 | 83 | 1012.8 |
| 20260510065206 | 63 | 53 | 0.0 | 1.0 | 0.00 | 0.77 | 0.00 | 83 | 1012.8 |
| 20260510065107 | 63 | 53 | 0.0 | 1.0 | 0.00 | 0.77 | 0.00 | 83 | 1012.8 |
| 20260510065007 | 62 | 53 | 0.0 | 1.0 | 0.00 | 0.77 | 0.00 | 83 | 1012.8 |
| 20260510064908 | 62 | 53 | 0.0 | 2.0 | 0.00 | 0.77 | 0.00 | 83 | 1012.8 |
| 20260510064807 | 62 | 53 | 0.0 | 2.0 | 0.00 | 0.77 | 0.00 | 83 | 1012.8 |
| 20260510064606 | 62 | 53 | 1.0 | 2.0 | 0.00 | 0.77 | 0.00 | 83 | 1012.7 |
| 20260510064408 | 62 | 53 | 1.0 | 4.0 | 0.00 | 0.77 | 0.00 | 83 | 1012.6 |
| 20260510064106 | 62 | 53 | 2.0 | 4.0 | 0.00 | 0.77 | 0.00 | 83 | 1012.6 |
| 20260510064008 | 62 | 53 | 2.0 | 4.0 | 0.00 | 0.77 | 0.00 | 83 | 1012.7 |
| 20260510063906 | 62 | 53 | 2.0 | 6.0 | 0.00 | 0.77 | 0.00 | 83 | 1012.6 |
| 20260510063805 | 62 | 53 | 3.0 | 6.0 | 0.00 | 0.77 | 0.00 | 83 | 1012.6 |
| 20260510063705 | 62 | 53 | 3.0 | 6.0 | 0.00 | 0.77 | 0.00 | 83 | 1012.6 |
| 20260510063407 | 62 | 17 | 3.0 | 7.0 | 0.00 | 0.77 | 0.00 | 84 | 1012.5 |
| 20260510063107 | 62 | 46 | 3.0 | 7.0 | 0.00 | 0.77 | 0.00 | 84 | 1012.5 |
| 20260510063008 | 62 | 65 | 3.0 | 7.0 | 0.00 | 0.77 | 0.00 | 84 | 1012.4 |
| 20260510062805 | 62 | 61 | 3.0 | 7.0 | 0.00 | 0.77 | 0.00 | 84 | 1012.4 |
| 20260510062705 | 61 | 54 | 3.0 | 7.0 | 0.00 | 0.77 | 0.00 | 84 | 1012.5 |
| 20260510062606 | 61 | 54 | 3.0 | 7.0 | 0.00 | 0.77 | 0.00 | 84 | 1012.4 |
| 20260510062510 | 61 | 80 | 3.0 | 7.0 | 0.00 | 0.77 | 0.00 | 84 | 1012.4 |
| 20260510062405 | 61 | 62 | 3.0 | 6.0 | 0.00 | 0.77 | 0.00 | 84 | 1012.3 |
| 20260510062205 | 61 | 50 | 3.0 | 6.0 | 0.00 | 0.77 | 0.00 | 84 | 1012.3 |
| 20260510062105 | 61 | 78 | 3.0 | 6.0 | 0.00 | 0.77 | 0.00 | 84 | 1012.4 |
| 20260510062008 | 61 | 54 | 2.0 | 6.0 | 0.00 | 0.77 | 0.00 | 84 | 1012.4 |
| 20260510061905 | 61 | 54 | 2.0 | 6.0 | 0.00 | 0.77 | 0.00 | 84 | 1012.4 |
| 20260510061805 | 61 | 54 | 2.0 | 6.0 | 0.00 | 0.77 | 0.00 | 84 | 1012.4 |
| 20260510061706 | 61 | 64 | 1.0 | 6.0 | 0.00 | 0.77 | 0.00 | 84 | 1012.4 |
| 20260510061605 | 61 | 47 | 1.0 | 6.0 | 0.00 | 0.77 | 0.00 | 84 | 1012.4 |
| 20260510061509 | 61 | 58 | 1.0 | 6.0 | 0.00 | 0.77 | 0.00 | 84 | 1012.5 |
| 20260510061405 | 61 | 56 | 0.0 | 4.0 | 0.00 | 0.77 | 0.00 | 84 | 1012.4 |
| 20260510061306 | 61 | 80 | 0.0 | 4.0 | 0.00 | 0.77 | 0.00 | 84 | 1012.4 |
| 20260510061206 | 60 | 57 | 0.0 | 2.0 | 0.00 | 0.77 | 0.00 | 84 | 1012.5 |
| 20260510061105 | 60 | 57 | 0.0 | 2.0 | 0.00 | 0.77 | 0.00 | 84 | 1012.4 |
| 20260510061007 | 60 | 98 | 0.0 | 0.0 | 0.00 | 0.77 | 0.00 | 84 | 1012.4 |
| 20260510060906 | 60 | 98 | 0.0 | 0.0 | 0.00 | 0.77 | 0.00 | 84 | 1012.5 |
| 20260510060804 | 60 | 104 | 0.0 | 0.0 | 0.00 | 0.77 | 0.00 | 84 | 1012.5 |
| 20260510060706 | 60 | 104 | 0.0 | 0.0 | 0.00 | 0.77 | 0.00 | 85 | 1012.5 |
| 20260510060605 | 60 | 104 | 0.0 | 0.0 | 0.00 | 0.77 | 0.00 | 85 | 1012.5 |
| 20260510060406 | 60 | 104 | 0.0 | 0.0 | 0.00 | 0.77 | 0.00 | 85 | 1012.5 |
| 20260510060207 | 60 | 227 | 0.0 | 0.0 | 0.00 | 0.77 | 0.00 | 85 | 1012.4 |
| 20260510060107 | 60 | 227 | 0.0 | 0.0 | 0.00 | 0.77 | 0.00 | 85 | 1012.4 |
| 20260510060008 | 60 | 227 | 0.0 | 0.0 | 0.00 | 0.77 | 0.00 | 85 | 1012.4 |
| 20260510055907 | 60 | 227 | 0.0 | 0.0 | 0.00 | 0.77 | 0.00 | 85 | 1012.4 |
| 20260510055806 | 59 | 227 | 0.0 | 0.0 | 0.00 | 0.77 | 0.00 | 85 | 1012.3 |
| 20260510055706 | 59 | 227 | 0.0 | 1.0 | 0.00 | 0.77 | 0.00 | 85 | 1012.3 |
| 20260510055605 | 59 | 227 | 0.0 | 1.0 | 0.00 | 0.77 | 0.00 | 84 | 1012.3 |
| 20260510055506 | 59 | 227 | 0.0 | 1.0 | 0.00 | 0.77 | 0.00 | 84 | 1012.2 |
| 20260510055405 | 59 | 227 | 0.0 | 1.0 | 0.00 | 0.77 | 0.00 | 84 | 1012.3 |
| 20260510055307 | 59 | 227 | 0.0 | 1.0 | 0.00 | 0.77 | 0.00 | 84 | 1012.2 |
| 20260510055206 | 59 | 227 | 0.0 | 1.0 | 0.00 | 0.77 | 0.00 | 84 | 1012.2 |
| 20260510055105 | 59 | 227 | 0.0 | 2.0 | 0.00 | 0.77 | 0.00 | 84 | 1012.1 |
| 20260510055007 | 59 | 227 | 1.0 | 2.0 | 0.00 | 0.77 | 0.00 | 84 | 1012.1 |
| 20260510054905 | 59 | 227 | 1.0 | 2.0 | 0.00 | 0.77 | 0.00 | 84 | 1012.1 |
| 20260510054605 | 59 | 227 | 1.0 | 3.0 | 0.00 | 0.77 | 0.00 | 83 | 1012.0 |
| 20260510054507 | 59 | 227 | 1.0 | 3.0 | 0.00 | 0.77 | 0.00 | 83 | 1012.1 |
| 20260510054105 | 59 | 227 | 1.0 | 5.0 | 0.00 | 0.77 | 0.00 | 82 | 1012.1 |
| 20260510054013 | 59 | 237 | 1.0 | 5.0 | 0.00 | 0.77 | 0.00 | 82 | 1012.2 |
| 20260510053907 | 60 | 230 | 1.0 | 5.0 | 0.00 | 0.77 | 0.00 | 82 | 1012.1 |
| 20260510053806 | 60 | 230 | 1.0 | 5.0 | 0.00 | 0.77 | 0.00 | 82 | 1012.1 |
| 20260510053706 | 60 | 230 | 1.0 | 5.0 | 0.00 | 0.77 | 0.00 | 82 | 1012.1 |
| 20260510053606 | 60 | 235 | 1.0 | 5.0 | 0.00 | 0.77 | 0.00 | 81 | 1012.0 |
| 20260510053506 | 60 | 189 | 0.0 | 5.0 | 0.00 | 0.77 | 0.00 | 81 | 1012.0 |
| 20260510053405 | 60 | 180 | 0.0 | 5.0 | 0.00 | 0.77 | 0.00 | 82 | 1011.9 |
| 20260510053206 | 60 | 260 | 0.0 | 0.0 | 0.00 | 0.77 | 0.00 | 82 | 1011.9 |
| 20260510053105 | 60 | 260 | 0.0 | 0.0 | 0.00 | 0.77 | 0.00 | 83 | 1011.9 |
| 20260510052906 | 60 | 260 | 0.0 | 0.0 | 0.00 | 0.77 | 0.00 | 83 | 1011.9 |
| 20260510052807 | 60 | 260 | 0.0 | 0.0 | 0.00 | 0.77 | 0.00 | 83 | 1011.8 |
| 20260510052706 | 60 | 260 | 0.0 | 0.0 | 0.00 | 0.77 | 0.00 | 83 | 1011.8 |
| 20260510052606 | 60 | 260 | 0.0 | 0.0 | 0.00 | 0.77 | 0.00 | 83 | 1011.7 |
| 20260510052507 | 60 | 260 | 0.0 | 0.0 | 0.00 | 0.77 | 0.00 | 83 | 1011.7 |
| 20260510052405 | 60 | 260 | 0.0 | 0.0 | 0.00 | 0.77 | 0.00 | 83 | 1011.7 |
| 20260510052307 | 60 | 260 | 0.0 | 0.0 | 0.00 | 0.77 | 0.00 | 83 | 1011.7 |
| 20260510052207 | 60 | 260 | 0.0 | 0.0 | 0.00 | 0.77 | 0.00 | 83 | 1011.7 |
| 20260510052106 | 60 | 260 | 0.0 | 0.0 | 0.00 | 0.77 | 0.00 | 83 | 1011.7 |
| 20260510052008 | 60 | 260 | 0.0 | 0.0 | 0.00 | 0.77 | 0.00 | 83 | 1011.8 |
| 20260510051906 | 60 | 260 | 0.0 | 0.0 | 0.00 | 0.77 | 0.00 | 83 | 1011.7 |
| 20260510051805 | 60 | 260 | 0.0 | 0.0 | 0.00 | 0.77 | 0.00 | 83 | 1011.7 |
| 20260510051605 | 60 | 260 | 0.0 | 0.0 | 0.00 | 0.77 | 0.00 | 83 | 1011.6 |
| 20260510051507 | 60 | 260 | 0.0 | 0.0 | 0.00 | 0.77 | 0.00 | 83 | 1011.6 |
| 20260510051407 | 60 | 260 | 0.0 | 0.0 | 0.00 | 0.77 | 0.00 | 82 | 1011.7 |
| 20260510051208 | 60 | 260 | 0.0 | 0.0 | 0.00 | 0.77 | 0.00 | 82 | 1011.7 |
| 20260510051008 | 60 | 260 | 0.0 | 0.0 | 0.00 | 0.77 | 0.00 | 82 | 1011.6 |
| 20260510050807 | 60 | 260 | 0.0 | 0.0 | 0.00 | 0.77 | 0.00 | 82 | 1011.5 |
| 20260510050705 | 60 | 260 | 0.0 | 0.0 | 0.00 | 0.77 | 0.00 | 82 | 1011.6 |
| 20260510050606 | 60 | 260 | 0.0 | 0.0 | 0.00 | 0.77 | 0.00 | 82 | 1011.5 |
| 20260510050506 | 60 | 260 | 0.0 | 0.0 | 0.00 | 0.77 | 0.00 | 82 | 1011.6 |
| 20260510050306 | 60 | 260 | 0.0 | 0.0 | 0.00 | 0.77 | 0.00 | 82 | 1011.5 |
| 20260510050205 | 60 | 260 | 0.0 | 0.0 | 0.00 | 0.77 | 0.00 | 82 | 1011.6 |
| 20260510050106 | 60 | 260 | 0.0 | 0.0 | 0.00 | 0.77 | 0.00 | 82 | 1011.6 |
| 20260510050008 | 60 | 260 | 0.0 | 0.0 | 0.00 | 0.77 | 0.00 | 82 | 1011.6 |
| 20260510045906 | 60 | 260 | 0.0 | 0.0 | 0.00 | 0.77 | 0.00 | 82 | 1011.6 |
| 20260510045806 | 61 | 260 | 0.0 | 0.0 | 0.00 | 0.77 | 0.00 | 82 | 1011.6 |
| 20260510045306 | 61 | 260 | 0.0 | 0.0 | 0.00 | 0.77 | 0.00 | 82 | 1011.6 |
| 20260510045205 | 61 | 260 | 0.0 | 0.0 | 0.00 | 0.77 | 0.00 | 81 | 1011.7 |
| 20260510044906 | 61 | 260 | 0.0 | 0.0 | 0.00 | 0.77 | 0.00 | 81 | 1011.6 |
| 20260510044805 | 61 | 260 | 0.0 | 0.0 | 0.00 | 0.77 | 0.00 | 81 | 1011.7 |
| 20260510044705 | 61 | 260 | 0.0 | 0.0 | 0.00 | 0.77 | 0.00 | 81 | 1011.6 |
| 20260510044607 | 61 | 260 | 0.0 | 0.0 | 0.00 | 0.77 | 0.00 | 81 | 1011.7 |
| 20260510044507 | 61 | 260 | 0.0 | 0.0 | 0.00 | 0.77 | 0.00 | 82 | 1011.7 |
| 20260510044305 | 61 | 260 | 0.0 | 0.0 | 0.00 | 0.77 | 0.00 | 82 | 1011.7 |
| 20260510044205 | 61 | 260 | 0.0 | 0.0 | 0.00 | 0.77 | 0.00 | 82 | 1011.7 |
| 20260510044106 | 61 | 260 | 0.0 | 0.0 | 0.00 | 0.77 | 0.00 | 82 | 1011.7 |
| 20260510043905 | 61 | 260 | 0.0 | 0.0 | 0.00 | 0.77 | 0.00 | 82 | 1011.7 |
| 20260510043806 | 61 | 260 | 0.0 | 0.0 | 0.00 | 0.77 | 0.00 | 82 | 1011.7 |
| 20260510043606 | 61 | 260 | 0.0 | 0.0 | 0.00 | 0.77 | 0.00 | 82 | 1011.6 |
| 20260510043507 | 61 | 260 | 0.0 | 0.0 | 0.00 | 0.77 | 0.00 | 82 | 1011.7 |
| 20260510043405 | 61 | 260 | 0.0 | 0.0 | 0.00 | 0.77 | 0.00 | 82 | 1011.7 |
| 20260510043206 | 61 | 260 | 0.0 | 0.0 | 0.00 | 0.77 | 0.00 | 82 | 1011.7 |
| 20260510043106 | 61 | 260 | 0.0 | 0.0 | 0.00 | 0.77 | 0.00 | 82 | 1011.8 |
| 20260510043010 | 61 | 260 | 0.0 | 0.0 | 0.00 | 0.77 | 0.00 | 82 | 1011.7 |
| 20260510042906 | 61 | 260 | 0.0 | 0.0 | 0.00 | 0.77 | 0.00 | 83 | 1011.7 |
| 20260510042805 | 61 | 260 | 0.0 | 0.0 | 0.00 | 0.77 | 0.00 | 83 | 1011.7 |
| 20260510042706 | 61 | 260 | 0.0 | 0.0 | 0.00 | 0.77 | 0.00 | 83 | 1011.7 |
| 20260510042508 | 61 | 260 | 0.0 | 0.0 | 0.00 | 0.77 | 0.00 | 83 | 1011.7 |
| 20260510042407 | 61 | 260 | 0.0 | 0.0 | 0.00 | 0.77 | 0.00 | 83 | 1011.8 |
| 20260510042307 | 61 | 260 | 0.0 | 0.0 | 0.00 | 0.77 | 0.00 | 83 | 1011.7 |
| 20260510042206 | 61 | 260 | 0.0 | 0.0 | 0.00 | 0.77 | 0.00 | 83 | 1011.8 |
| 20260510042107 | 61 | 260 | 0.0 | 0.0 | 0.00 | 0.77 | 0.00 | 83 | 1011.7 |
| 20260510042007 | 61 | 260 | 0.0 | 0.0 | 0.00 | 0.77 | 0.00 | 83 | 1011.7 |
| 20260510041905 | 61 | 260 | 0.0 | 0.0 | 0.00 | 0.77 | 0.00 | 83 | 1011.8 |
| 20260510041807 | 60 | 260 | 0.0 | 0.0 | 0.00 | 0.77 | 0.00 | 83 | 1011.6 |
| 20260510041705 | 60 | 260 | 0.0 | 0.0 | 0.00 | 0.77 | 0.00 | 84 | 1011.7 |
| 20260510041606 | 60 | 260 | 0.0 | 0.0 | 0.00 | 0.77 | 0.00 | 84 | 1011.7 |
| 20260510041507 | 60 | 260 | 0.0 | 0.0 | 0.00 | 0.77 | 0.00 | 84 | 1011.6 |
| 20260510041406 | 60 | 260 | 0.0 | 0.0 | 0.00 | 0.77 | 0.00 | 84 | 1011.6 |
| 20260510041305 | 60 | 260 | 0.0 | 0.0 | 0.00 | 0.77 | 0.00 | 84 | 1011.6 |
| 20260510041205 | 60 | 260 | 0.0 | 0.0 | 0.00 | 0.77 | 0.00 | 84 | 1011.6 |
| 20260510041008 | 60 | 260 | 0.0 | 2.0 | 0.00 | 0.77 | 0.00 | 84 | 1011.6 |
| 20260510040707 | 60 | 260 | 0.0 | 2.0 | 0.00 | 0.77 | 0.00 | 84 | 1011.6 |
| 20260510040606 | 60 | 260 | 0.0 | 2.0 | 0.00 | 0.77 | 0.00 | 84 | 1011.7 |
| 20260510040508 | 60 | 260 | 0.0 | 2.0 | 0.00 | 0.77 | 0.00 | 84 | 1011.6 |
| 20260510040305 | 60 | 260 | 0.0 | 2.0 | 0.00 | 0.77 | 0.00 | 84 | 1011.5 |
| 20260510040205 | 60 | 260 | 0.0 | 2.0 | 0.00 | 0.77 | 0.00 | 84 | 1011.6 |
| 20260510040009 | 60 | 260 | 0.0 | 2.0 | 0.00 | 0.77 | 0.00 | 84 | 1011.6 |
| 20260510035806 | 60 | 260 | 0.0 | 2.0 | 0.00 | 0.77 | 0.00 | 85 | 1011.6 |
| 20260510035707 | 60 | 260 | 1.0 | 2.0 | 0.00 | 0.77 | 0.00 | 85 | 1011.7 |
| 20260510035608 | 60 | 260 | 1.0 | 2.0 | 0.00 | 0.77 | 0.00 | 85 | 1011.7 |
| 20260510035508 | 60 | 260 | 1.0 | 2.0 | 0.00 | 0.77 | 0.00 | 85 | 1011.6 |
| 20260510035306 | 60 | 260 | 1.0 | 2.0 | 0.00 | 0.77 | 0.00 | 85 | 1011.6 |
| 20260510035106 | 60 | 260 | 1.0 | 2.0 | 0.00 | 0.77 | 0.00 | 85 | 1011.5 |
| 20260510035010 | 60 | 260 | 0.0 | 2.0 | 0.00 | 0.77 | 0.00 | 85 | 1011.5 |
| 20260510034908 | 60 | 260 | 0.0 | 2.0 | 0.00 | 0.77 | 0.00 | 85 | 1011.5 |
| 20260510034806 | 60 | 260 | 0.0 | 2.0 | 0.00 | 0.77 | 0.00 | 85 | 1011.5 |
| 20260510034706 | 60 | 260 | 0.0 | 2.0 | 0.00 | 0.77 | 0.00 | 85 | 1011.6 |
| 20260510034606 | 60 | 260 | 0.0 | 1.0 | 0.00 | 0.77 | 0.00 | 85 | 1011.5 |
| 20260510034508 | 60 | 260 | 0.0 | 1.0 | 0.00 | 0.77 | 0.00 | 85 | 1011.5 |
| 20260510034406 | 60 | 260 | 0.0 | 1.0 | 0.00 | 0.77 | 0.00 | 85 | 1011.5 |
| 20260510034306 | 60 | 260 | 0.0 | 1.0 | 0.00 | 0.77 | 0.00 | 85 | 1011.4 |
| 20260510034206 | 60 | 260 | 0.0 | 1.0 | 0.00 | 0.77 | 0.00 | 85 | 1011.5 |
| 20260510034106 | 60 | 260 | 0.0 | 1.0 | 0.00 | 0.77 | 0.00 | 85 | 1011.5 |
| 20260510034008 | 60 | 260 | 0.0 | 1.0 | 0.00 | 0.77 | 0.00 | 85 | 1011.5 |
| 20260510033908 | 60 | 260 | 1.0 | 3.0 | 0.00 | 0.77 | 0.00 | 85 | 1011.5 |
| 20260510033806 | 60 | 260 | 1.0 | 3.0 | 0.00 | 0.77 | 0.00 | 85 | 1011.5 |
| 20260510033706 | 60 | 260 | 1.0 | 3.0 | 0.00 | 0.77 | 0.00 | 85 | 1011.4 |
| 20260510033606 | 60 | 260 | 1.0 | 3.0 | 0.00 | 0.77 | 0.00 | 85 | 1011.4 |
| 20260510033511 | 60 | 260 | 1.0 | 3.0 | 0.00 | 0.77 | 0.00 | 85 | 1011.4 |
| 20260510033307 | 60 | 260 | 1.0 | 3.0 | 0.00 | 0.77 | 0.00 | 85 | 1011.4 |
| 20260510033206 | 60 | 260 | 1.0 | 3.0 | 0.00 | 0.77 | 0.00 | 85 | 1011.4 |
| 20260510033108 | 60 | 260 | 1.0 | 3.0 | 0.00 | 0.77 | 0.00 | 85 | 1011.4 |
| 20260510033009 | 60 | 260 | 0.0 | 3.0 | 0.00 | 0.77 | 0.00 | 85 | 1011.4 |
| 20260510032806 | 60 | 260 | 0.0 | 0.0 | 0.00 | 0.77 | 0.00 | 85 | 1011.4 |
| 20260510032707 | 60 | 260 | 0.0 | 0.0 | 0.00 | 0.77 | 0.00 | 85 | 1011.4 |
| 20260510032606 | 60 | 260 | 0.0 | 0.0 | 0.00 | 0.77 | 0.00 | 85 | 1011.4 |
| 20260510032406 | 60 | 260 | 0.0 | 0.0 | 0.00 | 0.77 | 0.00 | 85 | 1011.5 |
| 20260510032307 | 60 | 260 | 0.0 | 0.0 | 0.00 | 0.77 | 0.00 | 85 | 1011.4 |
| 20260510032206 | 60 | 260 | 0.0 | 0.0 | 0.00 | 0.77 | 0.00 | 85 | 1011.4 |
| 20260510032106 | 60 | 260 | 0.0 | 0.0 | 0.00 | 0.77 | 0.00 | 85 | 1011.4 |
| 20260510032008 | 60 | 260 | 0.0 | 0.0 | 0.00 | 0.77 | 0.00 | 85 | 1011.4 |
| 20260510031906 | 60 | 260 | 0.0 | 0.0 | 0.00 | 0.77 | 0.00 | 85 | 1011.4 |
| 20260510031706 | 60 | 260 | 0.0 | 0.0 | 0.00 | 0.77 | 0.00 | 85 | 1011.5 |
| 20260510031606 | 60 | 260 | 0.0 | 0.0 | 0.00 | 0.77 | 0.00 | 85 | 1011.5 |
| 20260510031508 | 60 | 260 | 0.0 | 0.0 | 0.00 | 0.77 | 0.00 | 85 | 1011.3 |
| 20260510031407 | 60 | 260 | 0.0 | 0.0 | 0.00 | 0.77 | 0.00 | 85 | 1011.5 |
| 20260510031307 | 60 | 260 | 0.0 | 0.0 | 0.00 | 0.77 | 0.00 | 85 | 1011.5 |
| 20260510031207 | 60 | 260 | 0.0 | 0.0 | 0.00 | 0.77 | 0.00 | 84 | 1011.4 |
| 20260510031106 | 60 | 260 | 0.0 | 0.0 | 0.00 | 0.77 | 0.00 | 85 | 1011.4 |
| 20260510031009 | 60 | 260 | 0.0 | 0.0 | 0.00 | 0.77 | 0.00 | 85 | 1011.4 |
| 20260510030906 | 60 | 260 | 0.0 | 0.0 | 0.00 | 0.77 | 0.00 | 85 | 1011.4 |
| 20260510030806 | 60 | 260 | 0.0 | 0.0 | 0.00 | 0.77 | 0.00 | 85 | 1011.4 |
| 20260510030706 | 60 | 260 | 0.0 | 0.0 | 0.00 | 0.77 | 0.00 | 85 | 1011.4 |
| 20260510030606 | 60 | 260 | 0.0 | 0.0 | 0.00 | 0.77 | 0.00 | 85 | 1011.4 |
| 20260510030510 | 60 | 260 | 0.0 | 0.0 | 0.00 | 0.77 | 0.00 | 85 | 1011.3 |
| 20260510030406 | 60 | 260 | 0.0 | 0.0 | 0.00 | 0.77 | 0.00 | 85 | 1011.4 |
| 20260510030307 | 60 | 260 | 0.0 | 0.0 | 0.00 | 0.77 | 0.00 | 85 | 1011.4 |
| 20260510030207 | 60 | 260 | 0.0 | 0.0 | 0.00 | 0.77 | 0.00 | 85 | 1011.4 |
| 20260510030107 | 60 | 260 | 0.0 | 0.0 | 0.00 | 0.77 | 0.00 | 85 | 1011.4 |
| 20260510030009 | 60 | 260 | 0.0 | 1.0 | 0.00 | 0.77 | 0.00 | 85 | 1011.4 |
| 20260510025806 | 60 | 260 | 0.0 | 1.0 | 0.00 | 0.77 | 0.00 | 85 | 1011.3 |
| 20260510025605 | 60 | 260 | 0.0 | 1.0 | 0.00 | 0.77 | 0.00 | 86 | 1011.4 |
| 20260510025507 | 60 | 260 | 0.0 | 1.0 | 0.00 | 0.77 | 0.00 | 86 | 1011.4 |
| 20260510025406 | 60 | 260 | 0.0 | 1.0 | 0.00 | 0.77 | 0.00 | 86 | 1011.4 |
| 20260510025306 | 60 | 260 | 0.0 | 1.0 | 0.00 | 0.77 | 0.00 | 86 | 1011.4 |
| 20260510025206 | 60 | 260 | 0.0 | 1.0 | 0.00 | 0.77 | 0.00 | 86 | 1011.4 |
| 20260510025009 | 60 | 260 | 0.0 | 0.0 | 0.00 | 0.77 | 0.00 | 87 | 1011.4 |
| 20260510024805 | 60 | 260 | 0.0 | 0.0 | 0.00 | 0.77 | 0.00 | 87 | 1011.4 |
| 20260510024705 | 60 | 260 | 0.0 | 0.0 | 0.00 | 0.77 | 0.00 | 87 | 1011.4 |
| 20260510024506 | 59 | 260 | 0.0 | 0.0 | 0.00 | 0.77 | 0.00 | 87 | 1011.4 |
| 20260510024406 | 59 | 260 | 0.0 | 0.0 | 0.00 | 0.77 | 0.00 | 87 | 1011.3 |
| 20260510024306 | 59 | 260 | 0.0 | 0.0 | 0.00 | 0.77 | 0.00 | 87 | 1011.4 |
| 20260510024205 | 59 | 260 | 0.0 | 0.0 | 0.00 | 0.77 | 0.00 | 87 | 1011.4 |
| 20260510024104 | 59 | 260 | 0.0 | 0.0 | 0.00 | 0.77 | 0.00 | 87 | 1011.4 |
| 20260510024008 | 59 | 260 | 0.0 | 0.0 | 0.00 | 0.77 | 0.00 | 87 | 1011.4 |
| 20260510023906 | 59 | 260 | 0.0 | 0.0 | 0.00 | 0.77 | 0.00 | 87 | 1011.3 |
| 20260510023808 | 59 | 260 | 0.0 | 0.0 | 0.00 | 0.77 | 0.00 | 87 | 1011.3 |
| 20260510023605 | 59 | 260 | 0.0 | 0.0 | 0.00 | 0.77 | 0.00 | 88 | 1011.3 |
| 20260510023509 | 59 | 260 | 0.0 | 0.0 | 0.00 | 0.77 | 0.00 | 88 | 1011.4 |
| 20260510023406 | 59 | 260 | 0.0 | 0.0 | 0.00 | 0.77 | 0.00 | 88 | 1011.3 |
| 20260510023305 | 59 | 260 | 0.0 | 0.0 | 0.00 | 0.77 | 0.00 | 88 | 1011.4 |
| 20260510023206 | 59 | 260 | 0.0 | 0.0 | 0.00 | 0.77 | 0.00 | 88 | 1011.4 |
| 20260510023106 | 59 | 260 | 0.0 | 0.0 | 0.00 | 0.77 | 0.00 | 88 | 1011.4 |
| 20260510023009 | 59 | 260 | 0.0 | 0.0 | 0.00 | 0.77 | 0.00 | 88 | 1011.4 |
| 20260510022904 | 59 | 260 | 0.0 | 0.0 | 0.00 | 0.77 | 0.00 | 88 | 1011.4 |
| 20260510022806 | 59 | 260 | 0.0 | 0.0 | 0.00 | 0.77 | 0.00 | 88 | 1011.4 |
| 20260510022705 | 59 | 260 | 0.0 | 0.0 | 0.00 | 0.77 | 0.00 | 88 | 1011.4 |
| 20260510022605 | 59 | 260 | 0.0 | 0.0 | 0.00 | 0.77 | 0.00 | 88 | 1011.4 |
| 20260510022506 | 59 | 260 | 0.0 | 0.0 | 0.00 | 0.77 | 0.00 | 88 | 1011.5 |
| 20260510022406 | 59 | 260 | 0.0 | 0.0 | 0.00 | 0.77 | 0.00 | 88 | 1011.4 |
| 20260510022205 | 59 | 260 | 0.0 | 0.0 | 0.00 | 0.77 | 0.00 | 88 | 1011.5 |
| 20260510022105 | 59 | 260 | 0.0 | 0.0 | 0.00 | 0.77 | 0.00 | 88 | 1011.5 |
| 20260510022008 | 59 | 260 | 0.0 | 0.0 | 0.00 | 0.77 | 0.00 | 88 | 1011.5 |
| 20260510021907 | 59 | 260 | 0.0 | 0.0 | 0.00 | 0.77 | 0.00 | 89 | 1011.5 |
| 20260510021804 | 59 | 260 | 0.0 | 0.0 | 0.00 | 0.77 | 0.00 | 89 | 1011.5 |
| 20260510021706 | 59 | 260 | 0.0 | 0.0 | 0.00 | 0.77 | 0.00 | 89 | 1011.5 |
| 20260510021507 | 59 | 260 | 0.0 | 0.0 | 0.00 | 0.77 | 0.00 | 88 | 1011.5 |
| 20260510021405 | 59 | 260 | 0.0 | 0.0 | 0.00 | 0.77 | 0.00 | 88 | 1011.5 |
| 20260510021307 | 59 | 260 | 0.0 | 0.0 | 0.00 | 0.77 | 0.00 | 88 | 1011.5 |
| 20260510021206 | 59 | 260 | 0.0 | 0.0 | 0.00 | 0.77 | 0.00 | 88 | 1011.5 |
| 20260510020906 | 59 | 260 | 0.0 | 0.0 | 0.00 | 0.77 | 0.00 | 88 | 1011.5 |
| 20260510020805 | 59 | 260 | 0.0 | 0.0 | 0.00 | 0.77 | 0.00 | 88 | 1011.5 |
| 20260510020705 | 59 | 260 | 0.0 | 0.0 | 0.00 | 0.77 | 0.00 | 88 | 1011.5 |
| 20260510020607 | 59 | 260 | 0.0 | 0.0 | 0.00 | 0.77 | 0.00 | 88 | 1011.5 |
| 20260510020509 | 59 | 260 | 0.0 | 0.0 | 0.00 | 0.77 | 0.00 | 88 | 1011.5 |
| 20260510020405 | 59 | 260 | 0.0 | 0.0 | 0.00 | 0.77 | 0.00 | 88 | 1011.5 |
| 20260510020305 | 59 | 260 | 0.0 | 0.0 | 0.00 | 0.77 | 0.00 | 88 | 1011.5 |
| 20260510020206 | 59 | 260 | 0.0 | 0.0 | 0.00 | 0.77 | 0.00 | 88 | 1011.4 |
| 20260510020104 | 59 | 260 | 0.0 | 0.0 | 0.00 | 0.77 | 0.00 | 88 | 1011.4 |
| 20260510015805 | 59 | 260 | 0.0 | 0.0 | 0.00 | 0.77 | 0.00 | 88 | 1011.4 |
| 20260510015706 | 59 | 260 | 0.0 | 0.0 | 0.00 | 0.77 | 0.00 | 88 | 1011.4 |
| 20260510015605 | 59 | 260 | 0.0 | 0.0 | 0.00 | 0.77 | 0.00 | 88 | 1011.3 |
| 20260510015508 | 59 | 260 | 0.0 | 0.0 | 0.00 | 0.77 | 0.00 | 88 | 1011.3 |
| 20260510015406 | 59 | 260 | 0.0 | 0.0 | 0.00 | 0.77 | 0.00 | 88 | 1011.3 |
| 20260510015306 | 59 | 260 | 0.0 | 0.0 | 0.00 | 0.77 | 0.00 | 88 | 1011.4 |
| 20260510015205 | 59 | 260 | 0.0 | 0.0 | 0.00 | 0.77 | 0.00 | 88 | 1011.3 |
| 20260510015007 | 59 | 260 | 0.0 | 0.0 | 0.00 | 0.77 | 0.00 | 88 | 1011.4 |
| 20260510014806 | 59 | 260 | 0.0 | 0.0 | 0.00 | 0.77 | 0.00 | 88 | 1011.4 |
| 20260510014705 | 59 | 260 | 0.0 | 0.0 | 0.00 | 0.77 | 0.00 | 88 | 1011.4 |
| 20260510014607 | 59 | 260 | 0.0 | 0.0 | 0.00 | 0.77 | 0.00 | 88 | 1011.3 |
| 20260510014507 | 59 | 260 | 0.0 | 0.0 | 0.00 | 0.77 | 0.00 | 88 | 1011.4 |
| 20260510014406 | 59 | 260 | 0.0 | 0.0 | 0.00 | 0.77 | 0.00 | 88 | 1011.4 |
| 20260510014307 | 59 | 260 | 0.0 | 0.0 | 0.00 | 0.77 | 0.00 | 87 | 1011.4 |
| 20260510014206 | 59 | 260 | 0.0 | 0.0 | 0.00 | 0.77 | 0.00 | 87 | 1011.4 |
| 20260510014106 | 59 | 260 | 0.0 | 0.0 | 0.00 | 0.77 | 0.00 | 87 | 1011.5 |
| 20260510014008 | 59 | 260 | 0.0 | 1.0 | 0.00 | 0.77 | 0.00 | 87 | 1011.5 |
| 20260510013907 | 59 | 260 | 0.0 | 2.0 | 0.00 | 0.77 | 0.00 | 87 | 1011.5 |
| 20260510013805 | 59 | 260 | 0.0 | 2.0 | 0.00 | 0.77 | 0.00 | 87 | 1011.5 |
| 20260510013707 | 59 | 260 | 0.0 | 2.0 | 0.00 | 0.77 | 0.00 | 87 | 1011.6 |
| 20260510013605 | 59 | 260 | 0.0 | 2.0 | 0.00 | 0.77 | 0.00 | 87 | 1011.5 |
| 20260510013508 | 59 | 260 | 0.0 | 2.0 | 0.00 | 0.77 | 0.00 | 87 | 1011.5 |
| 20260510013405 | 59 | 260 | 0.0 | 2.0 | 0.00 | 0.77 | 0.00 | 87 | 1011.5 |
| 20260510013306 | 59 | 260 | 0.0 | 2.0 | 0.00 | 0.77 | 0.00 | 87 | 1011.6 |
| 20260510013007 | 59 | 260 | 0.0 | 2.0 | 0.00 | 0.77 | 0.00 | 87 | 1011.5 |
| 20260510012806 | 60 | 260 | 0.0 | 2.0 | 0.00 | 0.77 | 0.00 | 87 | 1011.4 |
| 20260510012605 | 60 | 260 | 0.0 | 0.0 | 0.00 | 0.77 | 0.00 | 87 | 1011.5 |
| 20260510012506 | 60 | 260 | 0.0 | 0.0 | 0.00 | 0.77 | 0.00 | 87 | 1011.5 |
| 20260510012405 | 60 | 260 | 0.0 | 0.0 | 0.00 | 0.77 | 0.00 | 87 | 1011.5 |
| 20260510012307 | 60 | 260 | 0.0 | 0.0 | 0.00 | 0.77 | 0.00 | 87 | 1011.5 |
| 20260510012206 | 60 | 260 | 0.0 | 0.0 | 0.00 | 0.77 | 0.00 | 87 | 1011.5 |
| 20260510012106 | 60 | 260 | 0.0 | 0.0 | 0.00 | 0.77 | 0.00 | 87 | 1011.5 |
| 20260510011906 | 60 | 260 | 0.0 | 0.0 | 0.00 | 0.77 | 0.00 | 87 | 1011.5 |
| 20260510011804 | 60 | 260 | 0.0 | 0.0 | 0.00 | 0.77 | 0.00 | 87 | 1011.4 |
| 20260510011707 | 60 | 260 | 0.0 | 0.0 | 0.00 | 0.77 | 0.00 | 87 | 1011.4 |
| 20260510011608 | 60 | 260 | 0.0 | 0.0 | 0.00 | 0.77 | 0.00 | 87 | 1011.5 |
| 20260510011507 | 60 | 260 | 0.0 | 0.0 | 0.00 | 0.77 | 0.00 | 86 | 1011.5 |
| 20260510011404 | 60 | 260 | 0.0 | 0.0 | 0.00 | 0.77 | 0.00 | 86 | 1011.5 |
| 20260510011307 | 60 | 260 | 0.0 | 0.0 | 0.00 | 0.77 | 0.00 | 86 | 1011.5 |
| 20260510011205 | 60 | 260 | 0.0 | 0.0 | 0.00 | 0.77 | 0.00 | 87 | 1011.5 |
| 20260510011107 | 60 | 260 | 0.0 | 0.0 | 0.00 | 0.77 | 0.00 | 87 | 1011.5 |
| 20260510011013 | 60 | 260 | 0.0 | 0.0 | 0.00 | 0.77 | 0.00 | 87 | 1011.5 |
| 20260510010907 | 60 | 260 | 0.0 | 0.0 | 0.00 | 0.77 | 0.00 | 87 | 1011.6 |
| 20260510010806 | 60 | 260 | 0.0 | 0.0 | 0.00 | 0.77 | 0.00 | 87 | 1011.6 |
| 20260510010606 | 60 | 260 | 0.0 | 0.0 | 0.00 | 0.77 | 0.00 | 87 | 1011.6 |
| 20260510010508 | 60 | 260 | 0.0 | 0.0 | 0.00 | 0.77 | 0.00 | 86 | 1011.7 |
| 20260510010406 | 60 | 260 | 0.0 | 0.0 | 0.00 | 0.77 | 0.00 | 86 | 1011.8 |
| 20260510010306 | 60 | 260 | 0.0 | 0.0 | 0.00 | 0.77 | 0.00 | 86 | 1011.8 |
| 20260510010206 | 60 | 260 | 0.0 | 0.0 | 0.00 | 0.77 | 0.00 | 86 | 1011.7 |
| 20260510010106 | 60 | 260 | 0.0 | 0.0 | 0.00 | 0.77 | 0.00 | 86 | 1011.7 |
| 20260510010008 | 60 | 260 | 0.0 | 0.0 | 0.00 | 0.77 | 0.00 | 86 | 1011.7 |
| 20260510005905 | 60 | 260 | 0.0 | 0.0 | 0.00 | 0.77 | 0.00 | 87 | 1011.8 |
| 20260510005805 | 60 | 260 | 0.0 | 3.0 | 0.00 | 0.77 | 0.00 | 86 | 1011.7 |
| 20260510005704 | 60 | 260 | 0.0 | 3.0 | 0.00 | 0.77 | 0.00 | 86 | 1011.7 |
| 20260510005505 | 60 | 260 | 0.0 | 3.0 | 0.00 | 0.77 | 0.00 | 87 | 1011.7 |
| 20260510005404 | 60 | 260 | 0.0 | 3.0 | 0.00 | 0.77 | 0.00 | 87 | 1011.8 |
| 20260510005306 | 60 | 260 | 0.0 | 3.0 | 0.00 | 0.77 | 0.00 | 87 | 1011.8 |
| 20260510005105 | 60 | 260 | 0.0 | 3.0 | 0.00 | 0.77 | 0.00 | 87 | 1011.8 |
| 20260510005007 | 60 | 260 | 0.0 | 3.0 | 0.00 | 0.77 | 0.00 | 87 | 1011.9 |
| 20260510004905 | 60 | 349 | 0.0 | 2.0 | 0.00 | 0.77 | 0.00 | 87 | 1011.7 |
| 20260510004704 | 60 | 349 | 0.0 | 2.0 | 0.00 | 0.77 | 0.00 | 87 | 1011.9 |
| 20260510004604 | 60 | 349 | 0.0 | 2.0 | 0.00 | 0.77 | 0.00 | 87 | 1011.8 |
| 20260510004506 | 60 | 349 | 0.0 | 2.0 | 0.00 | 0.77 | 0.00 | 87 | 1011.8 |
| 20260510004405 | 60 | 349 | 0.0 | 2.0 | 0.00 | 0.77 | 0.00 | 87 | 1011.8 |
| 20260510004204 | 60 | 349 | 0.0 | 0.0 | 0.00 | 0.77 | 0.00 | 87 | 1011.9 |
| 20260510004104 | 60 | 349 | 0.0 | 0.0 | 0.00 | 0.77 | 0.00 | 87 | 1011.8 |
| 20260510004006 | 60 | 349 | 0.0 | 0.0 | 0.00 | 0.77 | 0.00 | 87 | 1011.9 |
| 20260510003807 | 60 | 349 | 0.0 | 0.0 | 0.00 | 0.77 | 0.00 | 87 | 1011.8 |
| 20260510003704 | 60 | 349 | 0.0 | 0.0 | 0.00 | 0.77 | 0.00 | 87 | 1011.9 |
| 20260510003605 | 60 | 349 | 0.0 | 0.0 | 0.00 | 0.77 | 0.00 | 88 | 1011.9 |
| 20260510003505 | 60 | 349 | 0.0 | 0.0 | 0.00 | 0.77 | 0.00 | 88 | 1011.9 |
| 20260510003404 | 60 | 349 | 0.0 | 0.0 | 0.00 | 0.77 | 0.00 | 88 | 1011.9 |
| 20260510003306 | 60 | 349 | 0.0 | 0.0 | 0.00 | 0.77 | 0.00 | 88 | 1012.0 |
| 20260510003205 | 60 | 349 | 0.0 | 0.0 | 0.00 | 0.77 | 0.00 | 88 | 1012.0 |
| 20260510003104 | 60 | 349 | 0.0 | 0.0 | 0.00 | 0.77 | 0.00 | 88 | 1012.0 |
| 20260510003006 | 60 | 349 | 0.0 | 0.0 | 0.00 | 0.77 | 0.00 | 88 | 1012.0 |
| 20260510002804 | 60 | 349 | 0.0 | 0.0 | 0.00 | 0.77 | 0.00 | 88 | 1012.0 |
| 20260510002705 | 60 | 349 | 0.0 | 0.0 | 0.00 | 0.77 | 0.00 | 88 | 1011.9 |
| 20260510002604 | 60 | 349 | 0.0 | 0.0 | 0.00 | 0.77 | 0.00 | 87 | 1012.0 |
| 20260510002507 | 60 | 349 | 0.0 | 0.0 | 0.00 | 0.77 | 0.00 | 87 | 1011.9 |
| 20260510002306 | 60 | 349 | 0.0 | 0.0 | 0.00 | 0.77 | 0.00 | 87 | 1012.0 |
| 20260510002105 | 60 | 349 | 0.0 | 0.0 | 0.00 | 0.77 | 0.00 | 87 | 1012.1 |
| 20260510001904 | 60 | 349 | 0.0 | 0.0 | 0.00 | 0.77 | 0.00 | 87 | 1012.3 |
| 20260510001704 | 60 | 349 | 0.0 | 0.0 | 0.00 | 0.77 | 0.00 | 87 | 1012.2 |
| 20260510001507 | 60 | 349 | 0.0 | 0.0 | 0.00 | 0.77 | 0.00 | 87 | 1012.2 |
| 20260510001404 | 61 | 349 | 0.0 | 1.0 | 0.00 | 0.77 | 0.00 | 87 | 1012.3 |
| 20260510001304 | 61 | 349 | 0.0 | 1.0 | 0.00 | 0.77 | 0.00 | 87 | 1012.2 |
| 20260510001204 | 61 | 349 | 1.0 | 1.0 | 0.00 | 0.77 | 0.00 | 87 | 1012.2 |
| 20260510001006 | 61 | 349 | 1.0 | 3.0 | 0.00 | 0.77 | 0.00 | 87 | 1012.2 |
| 20260510000904 | 61 | 349 | 1.0 | 3.0 | 0.00 | 0.77 | 0.00 | 87 | 1012.2 |
| 20260510000605 | 61 | 349 | 1.0 | 3.0 | 0.00 | 0.77 | 0.00 | 87 | 1012.2 |
| 20260510000506 | 61 | 349 | 1.0 | 3.0 | 0.00 | 0.77 | 0.00 | 87 | 1012.2 |
| 20260510000405 | 61 | 349 | 1.0 | 3.0 | 0.00 | 0.77 | 0.00 | 87 | 1012.1 |
| 20260510000305 | 61 | 349 | 1.0 | 3.0 | 0.00 | 0.77 | 0.00 | 87 | 1012.0 |
| 20260510000204 | 61 | 349 | 1.0 | 3.0 | 0.00 | 0.77 | 0.00 | 87 | 1012.1 |
| 20260510000105 | 61 | 349 | 1.0 | 3.0 | 0.00 | 0.77 | 0.00 | 87 | 1012.1 |
| 20260510000010 | 61 | 349 | 1.0 | 3.0 | 0.00 | 0.77 | 0.00 | 87 | 1012.1 |
| 20260509235904 | 61 | 349 | 1.0 | 2.0 | 0.00 | 0.77 | 0.00 | 87 | 1012.1 |
| 20260509235704 | 61 | 349 | 1.0 | 2.0 | 0.00 | 0.77 | 0.00 | 87 | 1012.1 |
| 20260509235604 | 61 | 349 | 1.0 | 2.0 | 0.00 | 0.77 | 0.00 | 87 | 1012.2 |
| 20260509235506 | 61 | 349 | 1.0 | 2.0 | 0.00 | 0.77 | 0.00 | 87 | 1012.2 |
| 20260509235406 | 61 | 349 | 1.0 | 2.0 | 0.00 | 0.77 | 0.00 | 87 | 1012.1 |
| 20260509235307 | 61 | 349 | 1.0 | 2.0 | 0.00 | 0.77 | 0.00 | 87 | 1012.2 |
| 20260509235205 | 61 | 349 | 1.0 | 2.0 | 0.00 | 0.77 | 0.00 | 87 | 1012.2 |
| 20260509235104 | 61 | 349 | 1.0 | 2.0 | 0.00 | 0.77 | 0.00 | 87 | 1012.2 |
| 20260509235007 | 61 | 349 | 1.0 | 2.0 | 0.00 | 0.77 | 0.00 | 87 | 1012.2 |
| 20260509234705 | 61 | 349 | 1.0 | 3.0 | 0.00 | 0.77 | 0.00 | 87 | 1012.3 |
| 20260509234606 | 61 | 349 | 1.0 | 3.0 | 0.00 | 0.77 | 0.00 | 87 | 1012.2 |
| 20260509234505 | 61 | 349 | 1.0 | 3.0 | 0.00 | 0.77 | 0.00 | 87 | 1012.2 |
| 20260509234404 | 61 | 349 | 0.0 | 3.0 | 0.00 | 0.77 | 0.00 | 87 | 1012.3 |
| 20260509234304 | 61 | 349 | 0.0 | 3.0 | 0.00 | 0.77 | 0.00 | 87 | 1012.2 |
| 20260509234204 | 61 | 349 | 0.0 | 3.0 | 0.00 | 0.77 | 0.00 | 87 | 1012.2 |
| 20260509234105 | 61 | 349 | 0.0 | 3.0 | 0.00 | 0.77 | 0.00 | 87 | 1012.2 |
| 20260509234007 | 61 | 349 | 0.0 | 3.0 | 0.00 | 0.77 | 0.00 | 87 | 1012.3 |
| 20260509233904 | 61 | 349 | 0.0 | 0.0 | 0.00 | 0.77 | 0.00 | 87 | 1012.3 |
| 20260509233805 | 61 | 349 | 0.0 | 0.0 | 0.00 | 0.77 | 0.00 | 87 | 1012.3 |
| 20260509233705 | 61 | 349 | 0.0 | 0.0 | 0.00 | 0.77 | 0.00 | 87 | 1012.3 |
| 20260509233605 | 61 | 349 | 0.0 | 0.0 | 0.00 | 0.77 | 0.00 | 87 | 1012.3 |
| 20260509233505 | 61 | 349 | 0.0 | 0.0 | 0.00 | 0.77 | 0.00 | 87 | 1012.3 |
| 20260509233405 | 61 | 349 | 0.0 | 0.0 | 0.00 | 0.77 | 0.00 | 87 | 1012.4 |
| 20260509233304 | 61 | 349 | 0.0 | 0.0 | 0.00 | 0.77 | 0.00 | 87 | 1012.3 |
| 20260509233105 | 61 | 349 | 0.0 | 0.0 | 0.00 | 0.77 | 0.00 | 87 | 1012.3 |
| 20260509232806 | 61 | 349 | 0.0 | 0.0 | 0.00 | 0.77 | 0.00 | 87 | 1012.2 |
| 20260509232701 | 61 | 349 | 0.0 | 0.0 | 0.00 | 0.77 | 0.00 | 87 | 1012.3 |
| 20260509232600 | 61 | 349 | 0.0 | 0.0 | 0.00 | 0.77 | 0.00 | 87 | 1012.3 |
| 20260509232404 | 61 | 349 | 0.0 | 0.0 | 0.00 | 0.77 | 0.00 | 87 | 1012.3 |
| 20260509232306 | 61 | 349 | 0.0 | 0.0 | 0.00 | 0.77 | 0.00 | 87 | 1012.3 |
| 20260509232204 | 61 | 349 | 0.0 | 0.0 | 0.00 | 0.77 | 0.00 | 87 | 1012.3 |
| 20260509232104 | 61 | 349 | 0.0 | 0.0 | 0.00 | 0.77 | 0.00 | 87 | 1012.3 |
| 20260509232006 | 61 | 349 | 0.0 | 0.0 | 0.00 | 0.77 | 0.00 | 87 | 1012.3 |
| 20260509231904 | 61 | 349 | 0.0 | 0.0 | 0.00 | 0.77 | 0.00 | 87 | 1012.4 |
| 20260509231805 | 61 | 349 | 0.0 | 1.0 | 0.00 | 0.77 | 0.00 | 87 | 1012.4 |
| 20260509231605 | 61 | 349 | 1.0 | 1.0 | 0.00 | 0.77 | 0.00 | 87 | 1012.4 |
| 20260509231506 | 61 | 349 | 1.0 | 1.0 | 0.00 | 0.77 | 0.00 | 87 | 1012.3 |
| 20260509231404 | 61 | 349 | 1.0 | 3.0 | 0.00 | 0.77 | 0.00 | 87 | 1012.4 |
| 20260509231205 | 61 | 349 | 2.0 | 4.0 | 0.00 | 0.77 | 0.00 | 87 | 1012.4 |
| 20260509231104 | 61 | 349 | 2.0 | 4.0 | 0.00 | 0.77 | 0.00 | 87 | 1012.4 |
| 20260509231006 | 61 | 349 | 2.0 | 4.0 | 0.00 | 0.77 | 0.00 | 87 | 1012.4 |
| 20260509230707 | 61 | 349 | 2.0 | 4.0 | 0.00 | 0.77 | 0.00 | 87 | 1012.4 |
| 20260509230605 | 61 | 349 | 2.0 | 4.0 | 0.00 | 0.77 | 0.00 | 87 | 1012.4 |
| 20260509230506 | 61 | 325 | 2.0 | 4.0 | 0.00 | 0.77 | 0.00 | 87 | 1012.5 |
| 20260509230405 | 61 | 341 | 1.0 | 4.0 | 0.00 | 0.77 | 0.00 | 87 | 1012.4 |
| 20260509230304 | 61 | 350 | 1.0 | 4.0 | 0.00 | 0.77 | 0.00 | 87 | 1012.5 |
| 20260509230203 | 61 | 306 | 1.0 | 3.0 | 0.00 | 0.77 | 0.00 | 87 | 1012.5 |
| 20260509230104 | 61 | 342 | 1.0 | 3.0 | 0.00 | 0.77 | 0.00 | 87 | 1012.6 |
| 20260509230006 | 61 | 342 | 1.0 | 3.0 | 0.00 | 0.77 | 0.00 | 86 | 1012.5 |
| 20260509225904 | 61 | 342 | 1.0 | 3.0 | 0.00 | 0.77 | 0.00 | 86 | 1012.5 |
| 20260509225806 | 61 | 342 | 1.0 | 3.0 | 0.00 | 0.77 | 0.00 | 86 | 1012.5 |
| 20260509225705 | 61 | 342 | 1.0 | 2.0 | 0.00 | 0.77 | 0.00 | 86 | 1012.4 |
| 20260509225604 | 61 | 342 | 1.0 | 2.0 | 0.00 | 0.77 | 0.00 | 86 | 1012.4 |
| 20260509225405 | 61 | 342 | 1.0 | 2.0 | 0.00 | 0.77 | 0.00 | 86 | 1012.5 |
| 20260509225306 | 61 | 342 | 1.0 | 2.0 | 0.00 | 0.77 | 0.00 | 86 | 1012.4 |
| 20260509225205 | 61 | 342 | 1.0 | 2.0 | 0.00 | 0.77 | 0.00 | 86 | 1012.5 |
| 20260509225103 | 61 | 342 | 1.0 | 2.0 | 0.00 | 0.77 | 0.00 | 86 | 1012.5 |
| 20260509224904 | 61 | 342 | 1.0 | 3.0 | 0.00 | 0.77 | 0.00 | 86 | 1012.5 |
| 20260509224507 | 61 | 342 | 2.0 | 5.0 | 0.00 | 0.77 | 0.00 | 86 | 1012.5 |
| 20260509224404 | 61 | 342 | 2.0 | 5.0 | 0.00 | 0.77 | 0.00 | 86 | 1012.6 |
| 20260509224305 | 61 | 342 | 2.0 | 5.0 | 0.00 | 0.77 | 0.00 | 86 | 1012.6 |
| 20260509224006 | 61 | 342 | 2.0 | 5.0 | 0.00 | 0.77 | 0.00 | 86 | 1012.6 |
| 20260509223904 | 61 | 342 | 2.0 | 5.0 | 0.00 | 0.77 | 0.00 | 86 | 1012.6 |
| 20260509223805 | 61 | 321 | 2.0 | 5.0 | 0.00 | 0.77 | 0.00 | 86 | 1012.7 |
| 20260509223706 | 61 | 274 | 2.0 | 5.0 | 0.00 | 0.77 | 0.00 | 86 | 1012.7 |
| 20260509223605 | 61 | 325 | 2.0 | 5.0 | 0.00 | 0.77 | 0.00 | 86 | 1012.7 |
| 20260509223507 | 61 | 319 | 1.0 | 5.0 | 0.00 | 0.77 | 0.00 | 86 | 1012.7 |
| 20260509223405 | 61 | 325 | 1.0 | 4.0 | 0.00 | 0.77 | 0.00 | 86 | 1012.8 |
| 20260509223306 | 61 | 330 | 1.0 | 4.0 | 0.00 | 0.77 | 0.00 | 86 | 1012.8 |
| 20260509223103 | 61 | 239 | 1.0 | 3.0 | 0.00 | 0.77 | 0.00 | 86 | 1012.8 |
| 20260509223007 | 61 | 239 | 1.0 | 3.0 | 0.00 | 0.77 | 0.00 | 86 | 1012.7 |
| 20260509222904 | 61 | 239 | 0.0 | 2.0 | 0.00 | 0.77 | 0.00 | 86 | 1012.8 |
| 20260509222804 | 61 | 239 | 0.0 | 2.0 | 0.00 | 0.77 | 0.00 | 86 | 1012.8 |
| 20260509222705 | 61 | 239 | 0.0 | 2.0 | 0.00 | 0.77 | 0.00 | 86 | 1012.8 |
| 20260509222506 | 61 | 191 | 0.0 | 2.0 | 0.00 | 0.77 | 0.00 | 86 | 1012.7 |
| 20260509222306 | 61 | 191 | 0.0 | 1.0 | 0.00 | 0.77 | 0.00 | 86 | 1012.8 |
| 20260509222204 | 61 | 191 | 0.0 | 1.0 | 0.00 | 0.77 | 0.00 | 86 | 1012.8 |
| 20260509222104 | 61 | 191 | 0.0 | 1.0 | 0.00 | 0.77 | 0.00 | 86 | 1012.7 |
| 20260509222006 | 61 | 293 | 0.0 | 0.0 | 0.00 | 0.77 | 0.00 | 86 | 1012.8 |
| 20260509221905 | 61 | 293 | 0.0 | 0.0 | 0.00 | 0.77 | 0.00 | 86 | 1012.7 |
| 20260509221704 | 61 | 293 | 0.0 | 2.0 | 0.00 | 0.77 | 0.00 | 86 | 1012.8 |
| 20260509221603 | 61 | 293 | 0.0 | 2.0 | 0.00 | 0.77 | 0.00 | 86 | 1012.8 |
| 20260509221506 | 61 | 293 | 0.0 | 2.0 | 0.00 | 0.77 | 0.00 | 86 | 1012.8 |
| 20260509221404 | 61 | 293 | 0.0 | 2.0 | 0.00 | 0.77 | 0.00 | 86 | 1012.8 |
| 20260509221304 | 61 | 293 | 1.0 | 2.0 | 0.00 | 0.77 | 0.00 | 86 | 1012.8 |
| 20260509221204 | 61 | 293 | 1.0 | 2.0 | 0.00 | 0.77 | 0.00 | 86 | 1012.8 |
| 20260509221105 | 61 | 293 | 1.0 | 4.0 | 0.00 | 0.77 | 0.00 | 86 | 1012.7 |
| 20260509221008 | 61 | 293 | 1.0 | 4.0 | 0.00 | 0.77 | 0.00 | 86 | 1012.8 |
| 20260509220904 | 61 | 293 | 1.0 | 4.0 | 0.00 | 0.77 | 0.00 | 86 | 1012.9 |
| 20260509220806 | 61 | 293 | 1.0 | 4.0 | 0.00 | 0.77 | 0.00 | 86 | 1013.0 |
| 20260509220705 | 61 | 293 | 1.0 | 4.0 | 0.00 | 0.77 | 0.00 | 86 | 1012.9 |
| 20260509220604 | 61 | 227 | 1.0 | 4.0 | 0.00 | 0.77 | 0.00 | 86 | 1013.0 |
| 20260509220509 | 61 | 227 | 1.0 | 4.0 | 0.00 | 0.77 | 0.00 | 86 | 1013.0 |
| 20260509220406 | 61 | 227 | 1.0 | 4.0 | 0.00 | 0.77 | 0.00 | 86 | 1013.0 |
| 20260509220307 | 61 | 227 | 1.0 | 4.0 | 0.00 | 0.77 | 0.00 | 87 | 1012.9 |
| 20260509220108 | 62 | 241 | 1.0 | 3.0 | 0.00 | 0.77 | 0.00 | 86 | 1013.0 |
| 20260509220023 | 62 | 241 | 1.0 | 3.0 | 0.00 | 0.77 | 0.00 | 87 | 1012.9 |
| 20260509215907 | 62 | 330 | 1.0 | 3.0 | 0.00 | 0.77 | 0.77 | 87 | 1012.8 |
| 20260509215807 | 62 | 330 | 1.0 | 3.0 | 0.00 | 0.77 | 0.77 | 87 | 1012.8 |
| 20260509215707 | 62 | 330 | 1.0 | 3.0 | 0.00 | 0.77 | 0.77 | 87 | 1012.8 |
| 20260509215608 | 62 | 330 | 1.0 | 3.0 | 0.00 | 0.77 | 0.77 | 87 | 1012.8 |
| 20260509215408 | 62 | 330 | 1.0 | 3.0 | 0.00 | 0.77 | 0.77 | 87 | 1012.8 |
| 20260509215307 | 62 | 330 | 1.0 | 3.0 | 0.00 | 0.77 | 0.77 | 87 | 1012.8 |
| 20260509215209 | 62 | 330 | 1.0 | 3.0 | 0.00 | 0.77 | 0.77 | 87 | 1012.8 |
| 20260509215107 | 62 | 297 | 0.0 | 3.0 | 0.00 | 0.77 | 0.77 | 87 | 1012.8 |
| 20260509215009 | 62 | 231 | 0.0 | 3.0 | 0.00 | 0.77 | 0.77 | 87 | 1012.7 |
| 20260509214807 | 62 | 231 | 0.0 | 3.0 | 0.00 | 0.77 | 0.77 | 87 | 1012.7 |
| 20260509214710 | 62 | 231 | 0.0 | 2.0 | 0.00 | 0.77 | 0.77 | 87 | 1012.6 |
| 20260509214607 | 62 | 231 | 0.0 | 2.0 | 0.00 | 0.77 | 0.77 | 87 | 1012.6 |
| 20260509214512 | 62 | 123 | 0.0 | 1.0 | 0.00 | 0.77 | 0.77 | 87 | 1012.5 |
| 20260509214408 | 62 | 123 | 0.0 | 1.0 | 0.00 | 0.77 | 0.77 | 87 | 1012.5 |
| 20260509214307 | 62 | 123 | 0.0 | 2.0 | 0.00 | 0.77 | 0.77 | 87 | 1012.4 |
| 20260509214208 | 62 | 123 | 0.0 | 2.0 | 0.00 | 0.77 | 0.77 | 87 | 1012.4 |
| 20260509214109 | 62 | 123 | 1.0 | 2.0 | 0.00 | 0.77 | 0.77 | 87 | 1012.5 |
| 20260509214010 | 62 | 123 | 1.0 | 2.0 | 0.00 | 0.77 | 0.77 | 87 | 1012.4 |
| 20260509213809 | 62 | 123 | 1.0 | 3.0 | 0.00 | 0.77 | 0.77 | 87 | 1012.4 |
| 20260509213707 | 62 | 123 | 1.0 | 3.0 | 0.00 | 0.77 | 0.77 | 87 | 1012.3 |
| 20260509213608 | 62 | 123 | 1.0 | 3.0 | 0.00 | 0.77 | 0.77 | 87 | 1012.3 |
| 20260509213509 | 62 | 123 | 1.0 | 3.0 | 0.00 | 0.77 | 0.77 | 87 | 1012.2 |
| 20260509213308 | 62 | 123 | 1.0 | 4.0 | 0.00 | 0.77 | 0.77 | 87 | 1012.1 |
| 20260509213107 | 62 | 123 | 1.0 | 4.0 | 0.00 | 0.77 | 0.77 | 87 | 1012.0 |
| 20260509213009 | 62 | 274 | 1.0 | 4.0 | 0.00 | 0.77 | 0.77 | 87 | 1011.9 |
| 20260509212908 | 62 | 274 | 1.0 | 4.0 | 0.00 | 0.77 | 0.77 | 87 | 1011.9 |
| 20260509212709 | 61 | 274 | 2.0 | 6.0 | 0.00 | 0.77 | 0.77 | 87 | 1011.9 |
| 20260509212608 | 61 | 274 | 2.0 | 6.0 | 0.00 | 0.77 | 0.77 | 87 | 1012.0 |
| 20260509212509 | 61 | 276 | 1.0 | 6.0 | 0.00 | 0.77 | 0.77 | 87 | 1011.9 |
| 20260509212307 | 61 | 90 | 1.0 | 6.0 | 0.00 | 0.77 | 0.77 | 87 | 1011.7 |
| 20260509212207 | 61 | 144 | 1.0 | 6.0 | 0.00 | 0.77 | 0.77 | 87 | 1011.7 |
| 20260509212108 | 61 | 106 | 1.0 | 6.0 | 0.00 | 0.77 | 0.77 | 86 | 1011.7 |
| 20260509212009 | 61 | 106 | 1.0 | 6.0 | 0.00 | 0.77 | 0.77 | 86 | 1011.8 |
| 20260509211909 | 61 | 90 | 1.0 | 6.0 | 0.00 | 0.77 | 0.77 | 86 | 1011.8 |
| 20260509211808 | 61 | 118 | 1.0 | 5.0 | 0.00 | 0.77 | 0.77 | 86 | 1012.0 |
| 20260509211708 | 61 | 108 | 1.0 | 5.0 | 0.00 | 0.77 | 0.77 | 86 | 1012.0 |
| 20260509211608 | 61 | 94 | 1.0 | 4.0 | 0.00 | 0.77 | 0.77 | 86 | 1012.1 |
| 20260509211508 | 61 | 170 | 1.0 | 4.0 | 0.00 | 0.77 | 0.77 | 86 | 1012.3 |
| 20260509211409 | 61 | 170 | 1.0 | 4.0 | 0.00 | 0.77 | 0.77 | 86 | 1012.4 |
| 20260509211207 | 61 | 170 | 1.0 | 4.0 | 0.00 | 0.77 | 0.77 | 86 | 1012.4 |
| 20260509211107 | 61 | 133 | 0.0 | 4.0 | 0.00 | 0.77 | 0.77 | 86 | 1012.4 |
| 20260509211010 | 62 | 172 | 0.0 | 4.0 | 0.00 | 0.77 | 0.77 | 86 | 1012.4 |
| 20260509210907 | 62 | 171 | 0.0 | 4.0 | 0.00 | 0.77 | 0.77 | 86 | 1012.4 |
| 20260509210807 | 62 | 156 | 0.0 | 4.0 | 0.00 | 0.77 | 0.77 | 86 | 1012.4 |
| 20260509210707 | 62 | 159 | 0.0 | 2.0 | 0.00 | 0.77 | 0.77 | 86 | 1012.3 |
| 20260509210608 | 62 | 159 | 0.0 | 2.0 | 0.00 | 0.77 | 0.77 | 86 | 1012.3 |
| 20260509210509 | 62 | 159 | 0.0 | 2.0 | 0.00 | 0.77 | 0.77 | 86 | 1012.4 |
| 20260509210409 | 62 | 159 | 0.0 | 2.0 | 0.00 | 0.77 | 0.77 | 86 | 1012.4 |
| 20260509210309 | 62 | 159 | 0.0 | 2.0 | 0.00 | 0.77 | 0.77 | 86 | 1012.4 |
| 20260509210208 | 62 | 159 | 0.0 | 1.0 | 0.00 | 0.77 | 0.77 | 86 | 1012.4 |
| 20260509210108 | 62 | 159 | 0.0 | 1.0 | 0.00 | 0.77 | 0.77 | 86 | 1012.4 |
| 20260509205906 | 62 | 159 | 0.0 | 1.0 | 0.00 | 0.77 | 0.77 | 86 | 1012.3 |
| 20260509205807 | 62 | 159 | 0.0 | 1.0 | 0.00 | 0.77 | 0.77 | 86 | 1012.3 |
| 20260509205707 | 62 | 159 | 0.0 | 0.0 | 0.00 | 0.77 | 0.77 | 86 | 1012.2 |
| 20260509205607 | 62 | 159 | 0.0 | 0.0 | 0.00 | 0.77 | 0.77 | 86 | 1012.2 |
| 20260509205508 | 62 | 159 | 0.0 | 0.0 | 0.00 | 0.77 | 0.77 | 85 | 1012.2 |
| 20260509205407 | 62 | 159 | 0.0 | 0.0 | 0.00 | 0.77 | 0.77 | 86 | 1012.4 |
| 20260509205307 | 62 | 159 | 0.0 | 0.0 | 0.00 | 0.77 | 0.77 | 86 | 1012.4 |
| 20260509205207 | 62 | 159 | 0.0 | 0.0 | 0.00 | 0.77 | 0.77 | 86 | 1012.4 |
| 20260509205107 | 62 | 159 | 0.0 | 0.0 | 0.00 | 0.77 | 0.77 | 85 | 1012.4 |
| 20260509205009 | 62 | 159 | 0.0 | 0.0 | 0.00 | 0.77 | 0.77 | 86 | 1012.3 |
| 20260509204907 | 62 | 159 | 0.0 | 0.0 | 0.00 | 0.77 | 0.77 | 85 | 1012.3 |
| 20260509204806 | 62 | 159 | 0.0 | 0.0 | 0.00 | 0.77 | 0.77 | 86 | 1012.4 |
| 20260509204606 | 62 | 159 | 0.0 | 0.0 | 0.00 | 0.77 | 0.77 | 86 | 1012.3 |
| 20260509204208 | 62 | 159 | 0.0 | 0.0 | 0.00 | 0.77 | 0.77 | 86 | 1012.3 |
| 20260509204107 | 62 | 159 | 0.0 | 0.0 | 0.00 | 0.77 | 0.77 | 86 | 1012.4 |
| 20260509204009 | 62 | 159 | 0.0 | 0.0 | 0.00 | 0.77 | 0.77 | 86 | 1012.4 |
| 20260509203907 | 62 | 159 | 0.0 | 0.0 | 0.00 | 0.77 | 0.77 | 86 | 1012.4 |
| 20260509203806 | 62 | 159 | 0.0 | 0.0 | 0.00 | 0.77 | 0.77 | 86 | 1012.4 |
| 20260509203706 | 62 | 159 | 0.0 | 0.0 | 0.00 | 0.77 | 0.77 | 86 | 1012.4 |
| 20260509203607 | 62 | 159 | 0.0 | 0.0 | 0.00 | 0.77 | 0.77 | 86 | 1012.4 |
| 20260509203509 | 62 | 159 | 0.0 | 0.0 | 0.00 | 0.77 | 0.77 | 86 | 1012.3 |
| 20260509203408 | 62 | 159 | 0.0 | 0.0 | 0.00 | 0.77 | 0.77 | 86 | 1012.3 |
| 20260509203307 | 62 | 159 | 0.0 | 0.0 | 0.00 | 0.77 | 0.77 | 86 | 1012.2 |
| 20260509203206 | 62 | 159 | 0.0 | 0.0 | 0.00 | 0.77 | 0.77 | 86 | 1012.1 |
| 20260509203106 | 62 | 159 | 0.0 | 0.0 | 0.00 | 0.77 | 0.77 | 86 | 1012.1 |
| 20260509202906 | 62 | 159 | 0.0 | 0.0 | 0.00 | 0.77 | 0.77 | 86 | 1012.0 |
| 20260509202806 | 62 | 159 | 0.0 | 0.0 | 0.00 | 0.77 | 0.77 | 86 | 1012.0 |
| 20260509202706 | 62 | 159 | 0.0 | 0.0 | 0.00 | 0.77 | 0.77 | 86 | 1012.1 |
| 20260509202606 | 62 | 159 | 0.0 | 0.0 | 0.00 | 0.77 | 0.77 | 86 | 1012.1 |
| 20260509202509 | 62 | 159 | 0.0 | 0.0 | 0.00 | 0.77 | 0.77 | 86 | 1012.1 |
| 20260509202408 | 62 | 159 | 0.0 | 0.0 | 0.00 | 0.77 | 0.77 | 86 | 1012.1 |
| 20260509202307 | 62 | 159 | 0.0 | 0.0 | 0.00 | 0.77 | 0.77 | 86 | 1012.1 |
| 20260509202206 | 62 | 159 | 0.0 | 0.0 | 0.00 | 0.77 | 0.77 | 86 | 1012.1 |
| 20260509202106 | 62 | 159 | 0.0 | 0.0 | 0.00 | 0.77 | 0.77 | 86 | 1012.1 |
| 20260509202008 | 62 | 159 | 0.0 | 0.0 | 0.00 | 0.77 | 0.77 | 86 | 1012.1 |
| 20260509201907 | 62 | 159 | 0.0 | 0.0 | 0.00 | 0.77 | 0.77 | 86 | 1012.1 |
| 20260509201706 | 62 | 159 | 0.0 | 0.0 | 0.00 | 0.77 | 0.77 | 86 | 1012.0 |
| 20260509201606 | 62 | 159 | 0.0 | 0.0 | 0.00 | 0.77 | 0.77 | 86 | 1012.0 |
| 20260509201507 | 62 | 159 | 0.0 | 0.0 | 0.00 | 0.77 | 0.77 | 86 | 1012.1 |
| 20260509201406 | 62 | 159 | 0.0 | 0.0 | 0.00 | 0.77 | 0.77 | 86 | 1012.1 |
| 20260509201306 | 62 | 159 | 0.0 | 0.0 | 0.00 | 0.77 | 0.77 | 86 | 1012.1 |
| 20260509201206 | 62 | 159 | 0.0 | 0.0 | 0.00 | 0.77 | 0.77 | 86 | 1012.1 |
| 20260509201107 | 62 | 159 | 0.0 | 0.0 | 0.00 | 0.77 | 0.77 | 85 | 1012.1 |
| 20260509201009 | 62 | 159 | 0.0 | 0.0 | 0.00 | 0.77 | 0.77 | 85 | 1012.1 |
| 20260509200906 | 62 | 159 | 0.0 | 0.0 | 0.00 | 0.77 | 0.77 | 86 | 1012.0 |
| 20260509200706 | 62 | 159 | 0.0 | 0.0 | 0.00 | 0.77 | 0.77 | 86 | 1012.0 |
| 20260509200606 | 62 | 159 | 0.0 | 0.0 | 0.00 | 0.77 | 0.77 | 86 | 1012.0 |
| 20260509200406 | 62 | 159 | 0.0 | 0.0 | 0.00 | 0.77 | 0.77 | 86 | 1012.0 |
| 20260509200307 | 62 | 159 | 0.0 | 0.0 | 0.00 | 0.77 | 0.77 | 86 | 1011.9 |
| 20260509200206 | 62 | 159 | 0.0 | 0.0 | 0.00 | 0.77 | 0.77 | 86 | 1011.9 |
| 20260509200107 | 62 | 159 | 0.0 | 0.0 | 0.00 | 0.77 | 0.77 | 86 | 1012.0 |
| 20260509200011 | 62 | 159 | 0.0 | 0.0 | 0.00 | 0.77 | 0.77 | 86 | 1012.0 |
| 20260509195907 | 62 | 159 | 0.0 | 0.0 | 0.00 | 0.77 | 0.77 | 86 | 1011.9 |
| 20260509195808 | 62 | 159 | 0.0 | 0.0 | 0.00 | 0.77 | 0.77 | 85 | 1011.9 |
| 20260509195708 | 62 | 159 | 0.0 | 0.0 | 0.00 | 0.77 | 0.77 | 85 | 1011.9 |
| 20260509195608 | 62 | 159 | 0.0 | 0.0 | 0.00 | 0.77 | 0.77 | 85 | 1011.9 |
| 20260509195509 | 62 | 159 | 0.0 | 0.0 | 0.00 | 0.77 | 0.77 | 85 | 1011.9 |
| 20260509195408 | 62 | 159 | 0.0 | 0.0 | 0.00 | 0.77 | 0.77 | 85 | 1011.9 |
| 20260509195307 | 62 | 159 | 0.0 | 0.0 | 0.00 | 0.77 | 0.77 | 85 | 1011.8 |
| 20260509195109 | 62 | 159 | 0.0 | 0.0 | 0.00 | 0.77 | 0.77 | 85 | 1011.7 |
| 20260509195011 | 62 | 159 | 0.0 | 0.0 | 0.00 | 0.77 | 0.77 | 85 | 1011.8 |
| 20260509194807 | 62 | 159 | 0.0 | 0.0 | 0.00 | 0.77 | 0.77 | 85 | 1011.7 |
| 20260509194709 | 62 | 159 | 0.0 | 0.0 | 0.00 | 0.77 | 0.77 | 85 | 1011.7 |
| 20260509194408 | 62 | 159 | 0.0 | 0.0 | 0.00 | 0.77 | 0.77 | 85 | 1011.6 |
| 20260509194208 | 62 | 159 | 0.0 | 0.0 | 0.00 | 0.77 | 0.77 | 85 | 1011.6 |
| 20260509194107 | 62 | 159 | 0.0 | 0.0 | 0.00 | 0.77 | 0.77 | 85 | 1011.6 |
| 20260509194010 | 62 | 159 | 0.0 | 0.0 | 0.00 | 0.77 | 0.77 | 85 | 1011.7 |
| 20260509193907 | 62 | 159 | 0.0 | 0.0 | 0.00 | 0.77 | 0.77 | 85 | 1011.6 |
| 20260509193808 | 62 | 159 | 0.0 | 0.0 | 0.00 | 0.77 | 0.77 | 85 | 1011.6 |
| 20260509193608 | 62 | 159 | 0.0 | 1.0 | 0.00 | 0.77 | 0.77 | 85 | 1011.6 |
| 20260509193509 | 62 | 159 | 0.0 | 1.0 | 0.00 | 0.77 | 0.77 | 85 | 1011.6 |
| 20260509193407 | 62 | 159 | 0.0 | 1.0 | 0.00 | 0.77 | 0.77 | 85 | 1011.4 |
| 20260509193308 | 62 | 159 | 0.0 | 1.0 | 0.00 | 0.77 | 0.77 | 85 | 1011.4 |
| 20260509193011 | 62 | 159 | 0.0 | 1.0 | 0.00 | 0.77 | 0.77 | 85 | 1011.5 |
| 20260509192907 | 62 | 159 | 0.0 | 3.0 | 0.00 | 0.77 | 0.77 | 85 | 1011.4 |
| 20260509192708 | 62 | 159 | 0.0 | 3.0 | 0.00 | 0.77 | 0.77 | 85 | 1011.4 |
| 20260509192608 | 62 | 159 | 0.0 | 3.0 | 0.00 | 0.77 | 0.77 | 85 | 1011.3 |
| 20260509192509 | 62 | 159 | 0.0 | 3.0 | 0.00 | 0.77 | 0.77 | 85 | 1011.2 |
| 20260509192309 | 62 | 159 | 0.0 | 3.0 | 0.00 | 0.77 | 0.77 | 85 | 1011.3 |
| 20260509192207 | 62 | 159 | 1.0 | 3.0 | 0.00 | 0.77 | 0.77 | 85 | 1011.3 |
| 20260509192107 | 62 | 159 | 1.0 | 3.0 | 0.00 | 0.77 | 0.77 | 85 | 1011.3 |
| 20260509192009 | 62 | 202 | 1.0 | 3.0 | 0.00 | 0.77 | 0.77 | 84 | 1011.3 |
| 20260509191807 | 62 | 124 | 1.0 | 3.0 | 0.00 | 0.77 | 0.77 | 84 | 1011.2 |
| 20260509191708 | 62 | 124 | 1.0 | 3.0 | 0.00 | 0.77 | 0.77 | 84 | 1011.2 |
| 20260509191607 | 62 | 124 | 1.0 | 4.0 | 0.00 | 0.77 | 0.77 | 84 | 1011.2 |
| 20260509191509 | 62 | 124 | 2.0 | 4.0 | 0.00 | 0.77 | 0.77 | 84 | 1011.2 |
| 20260509191408 | 62 | 124 | 2.0 | 4.0 | 0.00 | 0.77 | 0.77 | 84 | 1011.2 |
| 20260509191308 | 62 | 175 | 2.0 | 4.0 | 0.00 | 0.77 | 0.77 | 84 | 1011.2 |
| 20260509191209 | 62 | 175 | 2.0 | 4.0 | 0.00 | 0.77 | 0.77 | 84 | 1011.2 |
| 20260509191107 | 62 | 175 | 2.0 | 4.0 | 0.00 | 0.77 | 0.77 | 84 | 1011.2 |
| 20260509191010 | 62 | 175 | 2.0 | 4.0 | 0.00 | 0.77 | 0.77 | 84 | 1011.2 |
| 20260509190908 | 62 | 174 | 2.0 | 4.0 | 0.00 | 0.77 | 0.77 | 84 | 1011.1 |
| 20260509190807 | 62 | 157 | 2.0 | 4.0 | 0.00 | 0.77 | 0.77 | 84 | 1011.1 |
| 20260509190608 | 62 | 136 | 1.0 | 4.0 | 0.00 | 0.77 | 0.77 | 84 | 1011.0 |
| 20260509190509 | 63 | 135 | 1.0 | 4.0 | 0.00 | 0.77 | 0.77 | 84 | 1010.9 |
| 20260509190411 | 63 | 135 | 1.0 | 4.0 | 0.00 | 0.77 | 0.77 | 84 | 1010.9 |
| 20260509190308 | 63 | 100 | 1.0 | 4.0 | 0.00 | 0.77 | 0.77 | 84 | 1010.9 |
| 20260509190207 | 62 | 100 | 1.0 | 4.0 | 0.00 | 0.77 | 0.77 | 84 | 1010.9 |
| 20260509190012 | 63 | 66 | 1.0 | 4.0 | 0.00 | 0.77 | 0.77 | 84 | 1010.8 |
| 20260509185906 | 63 | 66 | 2.0 | 4.0 | 0.00 | 0.77 | 0.77 | 84 | 1010.9 |
| 20260509185806 | 63 | 66 | 2.0 | 4.0 | 0.00 | 0.77 | 0.77 | 84 | 1010.9 |
| 20260509185706 | 63 | 66 | 1.0 | 4.0 | 0.00 | 0.77 | 0.77 | 84 | 1010.9 |
| 20260509185606 | 63 | 95 | 1.0 | 5.0 | 0.00 | 0.77 | 0.77 | 84 | 1010.9 |
| 20260509185508 | 63 | 91 | 1.0 | 4.0 | 0.00 | 0.77 | 0.77 | 84 | 1010.9 |
| 20260509185307 | 63 | 135 | 1.0 | 3.0 | 0.00 | 0.77 | 0.77 | 84 | 1010.9 |
| 20260509185206 | 63 | 135 | 1.0 | 4.0 | 0.00 | 0.77 | 0.77 | 84 | 1010.9 |
| 20260509185107 | 63 | 135 | 1.0 | 4.0 | 0.00 | 0.77 | 0.77 | 84 | 1011.0 |
| 20260509185008 | 63 | 135 | 1.0 | 4.0 | 0.00 | 0.77 | 0.77 | 84 | 1010.9 |
| 20260509184808 | 63 | 108 | 1.0 | 4.0 | 0.00 | 0.77 | 0.77 | 84 | 1011.0 |
| 20260509184706 | 63 | 108 | 1.0 | 4.0 | 0.00 | 0.77 | 0.77 | 84 | 1010.9 |
| 20260509184606 | 63 | 108 | 1.0 | 4.0 | 0.00 | 0.77 | 0.77 | 84 | 1010.9 |
| 20260509184508 | 63 | 108 | 1.0 | 4.0 | 0.00 | 0.77 | 0.77 | 84 | 1010.9 |
| 20260509184406 | 63 | 108 | 1.0 | 4.0 | 0.00 | 0.77 | 0.77 | 84 | 1010.9 |
| 20260509184307 | 63 | 99 | 1.0 | 4.0 | 0.00 | 0.77 | 0.77 | 84 | 1010.9 |
| 20260509184208 | 63 | 120 | 1.0 | 6.0 | 0.00 | 0.77 | 0.77 | 84 | 1010.9 |
| 20260509183906 | 63 | 147 | 1.0 | 6.0 | 0.00 | 0.77 | 0.77 | 84 | 1010.8 |
| 20260509183807 | 63 | 147 | 1.0 | 6.0 | 0.00 | 0.77 | 0.77 | 84 | 1010.9 |
| 20260509183707 | 63 | 147 | 1.0 | 6.0 | 0.00 | 0.77 | 0.77 | 84 | 1010.9 |
| 20260509183606 | 63 | 60 | 1.0 | 6.0 | 0.00 | 0.77 | 0.77 | 84 | 1010.9 |
| 20260509183406 | 63 | 60 | 1.0 | 6.0 | 0.00 | 0.77 | 0.77 | 84 | 1010.8 |
| 20260509183306 | 63 | 60 | 1.0 | 3.0 | 0.00 | 0.77 | 0.77 | 84 | 1010.7 |
| 20260509183206 | 63 | 73 | 1.0 | 3.0 | 0.00 | 0.77 | 0.77 | 84 | 1010.7 |
| 20260509183108 | 63 | 73 | 1.0 | 3.0 | 0.00 | 0.77 | 0.77 | 84 | 1010.7 |
| 20260509183008 | 63 | 141 | 2.0 | 3.0 | 0.00 | 0.77 | 0.77 | 84 | 1010.7 |
| 20260509182906 | 63 | 141 | 2.0 | 7.0 | 0.00 | 0.77 | 0.77 | 84 | 1010.7 |
| 20260509182806 | 63 | 141 | 2.0 | 9.0 | 0.00 | 0.77 | 0.77 | 84 | 1010.7 |
| 20260509182707 | 63 | 141 | 2.0 | 9.0 | 0.00 | 0.77 | 0.77 | 84 | 1010.7 |
| 20260509182606 | 63 | 141 | 3.0 | 9.0 | 0.00 | 0.77 | 0.77 | 84 | 1010.6 |
| 20260509182508 | 63 | 141 | 3.0 | 9.0 | 0.00 | 0.77 | 0.77 | 84 | 1010.5 |
| 20260509182407 | 63 | 141 | 3.0 | 9.0 | 0.00 | 0.77 | 0.77 | 84 | 1010.5 |
| 20260509182206 | 63 | 141 | 4.0 | 9.0 | 0.00 | 0.77 | 0.77 | 84 | 1010.4 |
| 20260509182107 | 63 | 31 | 4.0 | 9.0 | 0.00 | 0.77 | 0.77 | 84 | 1010.3 |
| 20260509182008 | 63 | 64 | 4.0 | 9.0 | 0.00 | 0.77 | 0.77 | 83 | 1010.3 |
| 20260509181906 | 63 | 57 | 4.0 | 8.0 | 0.00 | 0.77 | 0.77 | 83 | 1010.3 |
| 20260509181807 | 63 | 63 | 4.0 | 8.0 | 0.00 | 0.77 | 0.77 | 83 | 1010.4 |
| 20260509181606 | 63 | 48 | 4.0 | 8.0 | 0.00 | 0.77 | 0.77 | 83 | 1010.3 |
| 20260509181406 | 63 | 71 | 4.0 | 8.0 | 0.00 | 0.77 | 0.77 | 83 | 1010.4 |
| 20260509181307 | 63 | 108 | 5.0 | 8.0 | 0.00 | 0.77 | 0.77 | 83 | 1010.4 |
| 20260509181206 | 63 | 79 | 4.0 | 8.0 | 0.00 | 0.77 | 0.77 | 83 | 1010.3 |
| 20260509181107 | 63 | 73 | 4.0 | 8.0 | 0.00 | 0.77 | 0.77 | 83 | 1010.3 |
| 20260509181008 | 63 | 66 | 4.0 | 8.0 | 0.00 | 0.77 | 0.77 | 83 | 1010.4 |
| 20260509180906 | 63 | 65 | 4.0 | 8.0 | 0.00 | 0.77 | 0.77 | 83 | 1010.4 |
| 20260509180806 | 63 | 65 | 4.0 | 8.0 | 0.00 | 0.77 | 0.77 | 83 | 1010.3 |
| 20260509180706 | 63 | 57 | 3.0 | 8.0 | 0.00 | 0.77 | 0.77 | 83 | 1010.4 |
| 20260509180607 | 63 | 55 | 4.0 | 8.0 | 0.00 | 0.77 | 0.77 | 83 | 1010.4 |
| 20260509180508 | 63 | 108 | 4.0 | 8.0 | 0.00 | 0.77 | 0.77 | 83 | 1010.5 |
| 20260509180208 | 63 | 42 | 4.0 | 8.0 | 0.00 | 0.77 | 0.77 | 83 | 1010.4 |
| 20260509180107 | 63 | 66 | 4.0 | 8.0 | 0.00 | 0.77 | 0.77 | 83 | 1010.4 |
| 20260509175907 | 63 | 85 | 4.0 | 8.0 | 0.00 | 0.77 | 0.77 | 83 | 1010.2 |
| 20260509175809 | 63 | 62 | 4.0 | 8.0 | 0.00 | 0.77 | 0.77 | 83 | 1010.2 |
| 20260509175707 | 63 | 94 | 4.0 | 8.0 | 0.00 | 0.77 | 0.77 | 83 | 1010.2 |
| 20260509175608 | 63 | 58 | 4.0 | 8.0 | 0.00 | 0.77 | 0.77 | 83 | 1010.2 |
| 20260509175509 | 63 | 69 | 4.0 | 8.0 | 0.00 | 0.77 | 0.77 | 83 | 1010.3 |
| 20260509175308 | 63 | 70 | 3.0 | 8.0 | 0.00 | 0.77 | 0.77 | 83 | 1010.3 |
| 20260509175209 | 63 | 70 | 3.0 | 6.0 | 0.00 | 0.77 | 0.77 | 83 | 1010.3 |
| 20260509175107 | 63 | 72 | 3.0 | 7.0 | 0.00 | 0.77 | 0.77 | 83 | 1010.3 |
| 20260509175009 | 63 | 56 | 3.0 | 7.0 | 0.00 | 0.77 | 0.77 | 83 | 1010.3 |
| 20260509174608 | 63 | 58 | 4.0 | 7.0 | 0.00 | 0.77 | 0.77 | 82 | 1010.4 |
| 20260509174509 | 63 | 69 | 4.0 | 7.0 | 0.00 | 0.77 | 0.77 | 82 | 1010.3 |
| 20260509174408 | 63 | 37 | 3.0 | 5.0 | 0.00 | 0.77 | 0.77 | 82 | 1010.4 |
| 20260509174308 | 63 | 55 | 3.0 | 5.0 | 0.00 | 0.77 | 0.77 | 82 | 1010.4 |
| 20260509174208 | 63 | 42 | 3.0 | 5.0 | 0.00 | 0.77 | 0.77 | 82 | 1010.4 |
| 20260509174109 | 63 | 54 | 3.0 | 5.0 | 0.00 | 0.77 | 0.77 | 82 | 1010.4 |
| 20260509173907 | 63 | 23 | 2.0 | 6.0 | 0.00 | 0.77 | 0.77 | 82 | 1010.3 |
| 20260509173807 | 63 | 62 | 2.0 | 6.0 | 0.00 | 0.77 | 0.77 | 82 | 1010.4 |
| 20260509173708 | 63 | 49 | 2.0 | 6.0 | 0.00 | 0.77 | 0.77 | 83 | 1010.4 |
| 20260509173608 | 63 | 58 | 2.0 | 5.0 | 0.00 | 0.77 | 0.77 | 83 | 1010.4 |
| 20260509173308 | 63 | 76 | 1.0 | 4.0 | 0.00 | 0.77 | 0.77 | 83 | 1010.5 |
| 20260509173109 | 63 | 58 | 1.0 | 4.0 | 0.00 | 0.77 | 0.77 | 83 | 1010.4 |
| 20260509173009 | 63 | 58 | 2.0 | 4.0 | 0.00 | 0.77 | 0.77 | 83 | 1010.4 |
| 20260509172907 | 63 | 58 | 2.0 | 4.0 | 0.00 | 0.77 | 0.77 | 83 | 1010.4 |
| 20260509172809 | 63 | 58 | 2.0 | 4.0 | 0.00 | 0.77 | 0.77 | 83 | 1010.5 |
| 20260509172707 | 63 | 58 | 2.0 | 4.0 | 0.00 | 0.77 | 0.77 | 83 | 1010.4 |
| 20260509172607 | 63 | 64 | 2.0 | 4.0 | 0.00 | 0.77 | 0.77 | 83 | 1010.5 |
| 20260509172510 | 63 | 64 | 2.0 | 4.0 | 0.00 | 0.77 | 0.77 | 83 | 1010.5 |
| 20260509172408 | 63 | 64 | 2.0 | 4.0 | 0.00 | 0.77 | 0.77 | 82 | 1010.4 |
| 20260509172309 | 63 | 64 | 2.0 | 4.0 | 0.00 | 0.77 | 0.77 | 82 | 1010.4 |
| 20260509172207 | 63 | 95 | 2.0 | 4.0 | 0.00 | 0.77 | 0.77 | 82 | 1010.3 |
| 20260509172109 | 63 | 81 | 2.0 | 4.0 | 0.00 | 0.77 | 0.77 | 82 | 1010.4 |
| 20260509172009 | 63 | 78 | 2.0 | 6.0 | 0.00 | 0.77 | 0.77 | 82 | 1010.4 |
| 20260509171807 | 63 | 50 | 3.0 | 7.0 | 0.00 | 0.77 | 0.77 | 82 | 1010.4 |
| 20260509171708 | 63 | 50 | 3.0 | 7.0 | 0.00 | 0.77 | 0.77 | 82 | 1010.4 |
| 20260509171608 | 63 | 50 | 3.0 | 7.0 | 0.00 | 0.77 | 0.77 | 82 | 1010.4 |
| 20260509171408 | 63 | 41 | 3.0 | 7.0 | 0.00 | 0.77 | 0.77 | 82 | 1010.3 |
| 20260509171308 | 63 | 73 | 3.0 | 7.0 | 0.00 | 0.77 | 0.77 | 82 | 1010.3 |
| 20260509171207 | 63 | 73 | 3.0 | 7.0 | 0.00 | 0.77 | 0.77 | 82 | 1010.3 |
| 20260509171107 | 63 | 41 | 3.0 | 7.0 | 0.00 | 0.77 | 0.77 | 82 | 1010.3 |
| 20260509171009 | 63 | 50 | 3.0 | 7.0 | 0.00 | 0.77 | 0.77 | 81 | 1010.3 |
| 20260509170909 | 63 | 64 | 2.0 | 7.0 | 0.00 | 0.77 | 0.77 | 82 | 1010.3 |
| 20260509170808 | 64 | 58 | 3.0 | 7.0 | 0.00 | 0.77 | 0.77 | 82 | 1010.4 |
| 20260509170609 | 64 | 153 | 3.0 | 8.0 | 0.00 | 0.77 | 0.77 | 82 | 1010.3 |
| 20260509170509 | 64 | 80 | 3.0 | 8.0 | 0.00 | 0.77 | 0.77 | 81 | 1010.3 |
| 20260509170309 | 64 | 89 | 3.0 | 8.0 | 0.00 | 0.77 | 0.77 | 81 | 1010.2 |
| 20260509170207 | 64 | 53 | 3.0 | 8.0 | 0.00 | 0.77 | 0.77 | 82 | 1010.2 |
| 20260509170107 | 64 | 52 | 3.0 | 8.0 | 0.00 | 0.77 | 0.77 | 81 | 1010.2 |
| 20260509165906 | 64 | 73 | 3.0 | 8.0 | 0.00 | 0.77 | 0.77 | 81 | 1010.2 |
| 20260509165708 | 64 | 33 | 2.0 | 6.0 | 0.00 | 0.77 | 0.77 | 81 | 1010.1 |
| 20260509165606 | 64 | 85 | 2.0 | 6.0 | 0.00 | 0.77 | 0.77 | 81 | 1010.1 |
| 20260509165509 | 64 | 73 | 2.0 | 6.0 | 0.00 | 0.77 | 0.77 | 81 | 1010.1 |
| 20260509165407 | 64 | 38 | 2.0 | 6.0 | 0.00 | 0.77 | 0.77 | 81 | 1010.2 |
| 20260509165307 | 64 | 81 | 1.0 | 6.0 | 0.00 | 0.77 | 0.77 | 81 | 1010.1 |
| 20260509165206 | 64 | 49 | 2.0 | 5.0 | 0.00 | 0.77 | 0.77 | 81 | 1010.1 |
| 20260509165107 | 64 | 49 | 1.0 | 5.0 | 0.00 | 0.77 | 0.77 | 81 | 1010.1 |
| 20260509165010 | 64 | 78 | 1.0 | 5.0 | 0.00 | 0.77 | 0.77 | 81 | 1010.1 |
| 20260509164807 | 64 | 59 | 1.0 | 5.0 | 0.00 | 0.77 | 0.77 | 82 | 1010.1 |
| 20260509164706 | 64 | 352 | 2.0 | 5.0 | 0.00 | 0.77 | 0.77 | 82 | 1010.1 |
| 20260509164607 | 64 | 352 | 2.0 | 5.0 | 0.00 | 0.77 | 0.77 | 82 | 1010.1 |
| 20260509164508 | 64 | 352 | 2.0 | 5.0 | 0.00 | 0.77 | 0.77 | 81 | 1010.2 |
| 20260509164406 | 64 | 352 | 2.0 | 5.0 | 0.00 | 0.77 | 0.77 | 81 | 1010.1 |
| 20260509164306 | 64 | 346 | 2.0 | 5.0 | 0.00 | 0.77 | 0.77 | 81 | 1010.0 |
| 20260509164207 | 63 | 74 | 2.0 | 5.0 | 0.00 | 0.77 | 0.77 | 81 | 1010.1 |
| 20260509164107 | 63 | 63 | 2.0 | 5.0 | 0.00 | 0.77 | 0.77 | 81 | 1010.1 |
| 20260509164008 | 63 | 357 | 2.0 | 8.0 | 0.00 | 0.77 | 0.77 | 81 | 1010.1 |
| 20260509163907 | 63 | 25 | 2.0 | 8.0 | 0.00 | 0.77 | 0.77 | 81 | 1010.1 |
| 20260509163806 | 63 | 92 | 3.0 | 8.0 | 0.00 | 0.77 | 0.77 | 82 | 1010.1 |
| 20260509163707 | 64 | 50 | 3.0 | 8.0 | 0.00 | 0.77 | 0.77 | 82 | 1010.1 |
| 20260509163607 | 64 | 58 | 3.0 | 8.0 | 0.00 | 0.77 | 0.77 | 82 | 1010.1 |
| 20260509163509 | 64 | 339 | 3.0 | 8.0 | 0.00 | 0.77 | 0.77 | 82 | 1010.1 |
| 20260509163408 | 64 | 339 | 4.0 | 8.0 | 0.00 | 0.77 | 0.77 | 82 | 1010.2 |
| 20260509163306 | 64 | 356 | 4.0 | 8.0 | 0.00 | 0.77 | 0.77 | 82 | 1010.1 |
| 20260509163207 | 64 | 78 | 4.0 | 8.0 | 0.00 | 0.77 | 0.77 | 82 | 1010.1 |
| 20260509163106 | 64 | 11 | 4.0 | 8.0 | 0.00 | 0.77 | 0.77 | 82 | 1010.1 |
| 20260509163008 | 64 | 29 | 4.0 | 8.0 | 0.00 | 0.77 | 0.77 | 82 | 1010.0 |
| 20260509162806 | 64 | 22 | 4.0 | 8.0 | 0.00 | 0.77 | 0.77 | 82 | 1010.0 |
| 20260509162706 | 64 | 57 | 3.0 | 6.0 | 0.00 | 0.77 | 0.77 | 82 | 1009.9 |
| 20260509162607 | 64 | 29 | 4.0 | 7.0 | 0.00 | 0.77 | 0.77 | 82 | 1010.0 |
| 20260509162509 | 64 | 27 | 4.0 | 10.0 | 0.00 | 0.77 | 0.77 | 82 | 1010.0 |
| 20260509162406 | 64 | 37 | 3.0 | 10.0 | 0.00 | 0.77 | 0.77 | 82 | 1010.0 |
| 20260509162307 | 64 | 37 | 4.0 | 10.0 | 0.00 | 0.77 | 0.77 | 82 | 1010.1 |
| 20260509162008 | 64 | 46 | 3.0 | 10.0 | 0.00 | 0.77 | 0.77 | 82 | 1010.0 |
| 20260509161808 | 64 | 61 | 4.0 | 10.0 | 0.00 | 0.77 | 0.77 | 82 | 1010.0 |
| 20260509161606 | 64 | 77 | 3.0 | 10.0 | 0.00 | 0.77 | 0.77 | 82 | 1010.0 |
| 20260509161510 | 64 | 61 | 3.0 | 9.0 | 0.00 | 0.77 | 0.77 | 82 | 1010.0 |
| 20260509161407 | 64 | 185 | 3.0 | 9.0 | 0.00 | 0.77 | 0.77 | 82 | 1010.1 |
| 20260509161306 | 64 | 39 | 3.0 | 9.0 | 0.00 | 0.77 | 0.77 | 82 | 1010.1 |
| 20260509161206 | 64 | 152 | 3.0 | 10.0 | 0.00 | 0.77 | 0.77 | 82 | 1010.0 |
| 20260509161106 | 64 | 16 | 4.0 | 10.0 | 0.00 | 0.77 | 0.77 | 82 | 1010.1 |
| 20260509161011 | 64 | 52 | 4.0 | 10.0 | 0.00 | 0.77 | 0.77 | 82 | 1010.0 |
| 20260509160906 | 64 | 70 | 4.0 | 10.0 | 0.00 | 0.77 | 0.77 | 82 | 1010.0 |
| 20260509160808 | 64 | 335 | 4.0 | 11.0 | 0.00 | 0.77 | 0.77 | 82 | 1009.9 |
| 20260509160708 | 64 | 10 | 4.0 | 11.0 | 0.00 | 0.77 | 0.77 | 82 | 1009.9 |
| 20260509160607 | 64 | 162 | 4.0 | 11.0 | 0.00 | 0.77 | 0.77 | 82 | 1010.0 |
| 20260509160406 | 64 | 47 | 4.0 | 11.0 | 0.00 | 0.77 | 0.77 | 82 | 1010.0 |
| 20260509160207 | 64 | 54 | 4.0 | 11.0 | 0.00 | 0.77 | 0.77 | 82 | 1010.1 |
| 20260509160011 | 64 | 29 | 4.0 | 11.0 | 0.00 | 0.77 | 0.77 | 82 | 1010.0 |
| 20260509155907 | 64 | 48 | 3.0 | 7.0 | 0.00 | 0.77 | 0.77 | 82 | 1010.0 |
| 20260509155607 | 63 | 63 | 3.0 | 7.0 | 0.00 | 0.77 | 0.77 | 82 | 1010.1 |
| 20260509155509 | 63 | 48 | 3.0 | 7.0 | 0.00 | 0.77 | 0.77 | 82 | 1010.0 |
| 20260509155407 | 63 | 44 | 3.0 | 7.0 | 0.00 | 0.77 | 0.77 | 82 | 1010.1 |
| 20260509155306 | 63 | 32 | 2.0 | 8.0 | 0.00 | 0.77 | 0.77 | 82 | 1010.2 |
| 20260509155207 | 64 | 60 | 2.0 | 8.0 | 0.00 | 0.77 | 0.77 | 83 | 1010.2 |
| 20260509155106 | 64 | 335 | 2.0 | 5.0 | 0.00 | 0.77 | 0.77 | 83 | 1010.2 |
| 20260509155010 | 64 | 42 | 2.0 | 5.0 | 0.00 | 0.77 | 0.77 | 83 | 1010.2 |
| 20260509154907 | 64 | 335 | 2.0 | 6.0 | 0.00 | 0.77 | 0.77 | 83 | 1010.2 |
| 20260509154807 | 64 | 46 | 2.0 | 6.0 | 0.00 | 0.77 | 0.77 | 83 | 1010.3 |
| 20260509154608 | 64 | 102 | 3.0 | 7.0 | 0.00 | 0.77 | 0.77 | 83 | 1010.2 |
| 20260509154508 | 64 | 142 | 3.0 | 9.0 | 0.00 | 0.77 | 0.77 | 83 | 1010.2 |
| 20260509154306 | 63 | 264 | 3.0 | 9.0 | 0.00 | 0.77 | 0.77 | 83 | 1010.2 |
| 20260509154009 | 63 | 49 | 4.0 | 10.0 | 0.00 | 0.77 | 0.77 | 83 | 1010.2 |
| 20260509153906 | 63 | 16 | 4.0 | 10.0 | 0.00 | 0.77 | 0.77 | 83 | 1010.1 |
| 20260509153807 | 64 | 16 | 3.0 | 10.0 | 0.00 | 0.77 | 0.77 | 83 | 1010.2 |
| 20260509153706 | 64 | 48 | 3.0 | 10.0 | 0.00 | 0.77 | 0.77 | 83 | 1010.1 |
| 20260509153606 | 64 | 351 | 3.0 | 10.0 | 0.00 | 0.77 | 0.77 | 83 | 1010.1 |
| 20260509153509 | 64 | 83 | 3.0 | 10.0 | 0.00 | 0.77 | 0.77 | 83 | 1010.1 |
| 20260509153406 | 64 | 5 | 3.0 | 10.0 | 0.00 | 0.77 | 0.77 | 83 | 1010.1 |
| 20260509153306 | 64 | 43 | 2.0 | 10.0 | 0.00 | 0.77 | 0.77 | 83 | 1010.0 |
| 20260509153207 | 64 | 43 | 2.0 | 10.0 | 0.00 | 0.77 | 0.77 | 83 | 1010.0 |
| 20260509153107 | 64 | 53 | 2.0 | 7.0 | 0.00 | 0.77 | 0.77 | 83 | 1010.0 |
| 20260509153008 | 64 | 69 | 2.0 | 10.0 | 0.00 | 0.77 | 0.77 | 84 | 1010.0 |
| 20260509152907 | 64 | 45 | 2.0 | 10.0 | 0.00 | 0.77 | 0.77 | 84 | 1010.0 |
| 20260509152807 | 64 | 68 | 2.0 | 10.0 | 0.00 | 0.77 | 0.77 | 84 | 1010.0 |
| 20260509152408 | 64 | 77 | 2.0 | 10.0 | 0.00 | 0.77 | 0.77 | 83 | 1009.9 |
| 20260509152309 | 64 | 330 | 2.0 | 10.0 | 0.00 | 0.77 | 0.77 | 83 | 1009.9 |
| 20260509152207 | 64 | 13 | 2.0 | 10.0 | 0.00 | 0.77 | 0.77 | 83 | 1009.8 |
| 20260509152107 | 64 | 53 | 2.0 | 9.0 | 0.00 | 0.77 | 0.77 | 83 | 1009.9 |
| 20260509152008 | 64 | 351 | 2.0 | 5.0 | 0.00 | 0.77 | 0.77 | 84 | 1009.8 |
| 20260509151908 | 64 | 351 | 1.0 | 5.0 | 0.00 | 0.77 | 0.77 | 84 | 1009.8 |
| 20260509151706 | 64 | 321 | 1.0 | 4.0 | 0.00 | 0.77 | 0.77 | 84 | 1009.8 |
| 20260509151608 | 64 | 325 | 2.0 | 4.0 | 0.00 | 0.77 | 0.77 | 84 | 1009.8 |
| 20260509151509 | 64 | 307 | 2.0 | 6.0 | 0.00 | 0.77 | 0.77 | 84 | 1009.8 |
| 20260509151407 | 64 | 27 | 2.0 | 6.0 | 0.00 | 0.77 | 0.77 | 84 | 1009.8 |
| 20260509151307 | 64 | 27 | 2.0 | 6.0 | 0.00 | 0.77 | 0.77 | 84 | 1009.9 |
| 20260509151207 | 64 | 61 | 2.0 | 6.0 | 0.00 | 0.77 | 0.77 | 84 | 1009.8 |
| 20260509151106 | 64 | 325 | 2.0 | 6.0 | 0.00 | 0.77 | 0.77 | 84 | 1009.7 |
| 20260509150907 | 64 | 59 | 2.0 | 6.0 | 0.00 | 0.77 | 0.77 | 84 | 1009.9 |
| 20260509150708 | 64 | 339 | 2.0 | 6.0 | 0.00 | 0.77 | 0.77 | 83 | 1010.0 |
| 20260509150606 | 64 | 48 | 2.0 | 7.0 | 0.00 | 0.77 | 0.77 | 84 | 1010.0 |
| 20260509150509 | 64 | 50 | 2.0 | 6.0 | 0.00 | 0.77 | 0.77 | 84 | 1009.9 |
| 20260509150407 | 64 | 12 | 2.0 | 6.0 | 0.00 | 0.77 | 0.77 | 84 | 1010.0 |
| 20260509150307 | 64 | 358 | 2.0 | 6.0 | 0.00 | 0.77 | 0.77 | 84 | 1010.0 |
| 20260509150207 | 64 | 2 | 2.0 | 6.0 | 0.00 | 0.77 | 0.77 | 84 | 1010.0 |
| 20260509150107 | 64 | 353 | 2.0 | 6.0 | 0.00 | 0.77 | 0.77 | 84 | 1010.0 |
| 20260509145906 | 64 | 346 | 2.0 | 6.0 | 0.00 | 0.77 | 0.77 | 84 | 1010.0 |
| 20260509145806 | 64 | 325 | 2.0 | 6.0 | 0.00 | 0.77 | 0.77 | 84 | 1010.0 |
| 20260509145706 | 64 | 335 | 2.0 | 6.0 | 0.00 | 0.77 | 0.77 | 84 | 1010.0 |
| 20260509145609 | 64 | 226 | 2.0 | 6.0 | 0.00 | 0.77 | 0.77 | 84 | 1010.0 |
| 20260509145508 | 64 | 46 | 2.0 | 6.0 | 0.00 | 0.77 | 0.77 | 84 | 1009.9 |
| 20260509145406 | 64 | 280 | 2.0 | 5.0 | 0.00 | 0.77 | 0.77 | 85 | 1009.9 |
| 20260509145206 | 64 | 341 | 2.0 | 5.0 | 0.00 | 0.77 | 0.77 | 85 | 1009.9 |
| 20260509145106 | 64 | 231 | 2.0 | 5.0 | 0.00 | 0.77 | 0.77 | 85 | 1009.9 |
| 20260509144907 | 64 | 75 | 2.0 | 5.0 | 0.00 | 0.77 | 0.77 | 85 | 1009.9 |
| 20260509144807 | 64 | 312 | 2.0 | 5.0 | 0.00 | 0.77 | 0.77 | 85 | 1009.9 |
| 20260509144706 | 64 | 312 | 2.0 | 5.0 | 0.00 | 0.77 | 0.77 | 85 | 1009.9 |
| 20260509144606 | 64 | 58 | 2.0 | 5.0 | 0.00 | 0.77 | 0.77 | 85 | 1009.9 |
| 20260509144509 | 64 | 58 | 2.0 | 5.0 | 0.00 | 0.77 | 0.77 | 85 | 1009.9 |
| 20260509144407 | 64 | 31 | 2.0 | 5.0 | 0.00 | 0.77 | 0.77 | 85 | 1009.8 |
| 20260509144306 | 64 | 39 | 2.0 | 6.0 | 0.00 | 0.77 | 0.77 | 86 | 1009.9 |
| 20260509144106 | 64 | 117 | 2.0 | 6.0 | 0.00 | 0.77 | 0.77 | 86 | 1009.9 |
| 20260509144009 | 64 | 70 | 2.0 | 6.0 | 0.00 | 0.77 | 0.77 | 87 | 1009.9 |
| 20260509143908 | 64 | 313 | 2.0 | 6.0 | 0.00 | 0.77 | 0.77 | 87 | 1009.9 |
| 20260509143806 | 64 | 253 | 2.0 | 6.0 | 0.00 | 0.77 | 0.77 | 87 | 1009.9 |
| 20260509143706 | 64 | 253 | 2.0 | 6.0 | 0.01 | 0.77 | 0.77 | 87 | 1009.9 |
| 20260509143606 | 64 | 249 | 2.0 | 6.0 | 0.01 | 0.77 | 0.77 | 88 | 1010.0 |
| 20260509143511 | 64 | 317 | 2.0 | 6.0 | 0.01 | 0.77 | 0.77 | 88 | 1010.0 |
| 20260509143407 | 64 | 321 | 2.0 | 6.0 | 0.01 | 0.77 | 0.77 | 88 | 1010.0 |
| 20260509143307 | 64 | 231 | 2.0 | 6.0 | 0.01 | 0.77 | 0.77 | 88 | 1010.0 |
| 20260509143207 | 64 | 268 | 2.0 | 4.0 | 0.01 | 0.77 | 0.77 | 88 | 1009.9 |
| 20260509143108 | 64 | 229 | 2.0 | 4.0 | 0.01 | 0.77 | 0.77 | 89 | 1010.0 |
| 20260509143008 | 63 | 260 | 2.0 | 4.0 | 0.01 | 0.77 | 0.77 | 88 | 1009.9 |
| 20260509142906 | 63 | 196 | 2.0 | 6.0 | 0.01 | 0.77 | 0.77 | 89 | 1010.0 |
| 20260509142807 | 63 | 238 | 2.0 | 6.0 | 0.01 | 0.77 | 0.77 | 89 | 1010.0 |
| 20260509142708 | 63 | 217 | 2.0 | 6.0 | 0.01 | 0.77 | 0.77 | 89 | 1010.0 |
| 20260509142606 | 63 | 356 | 2.0 | 6.0 | 0.01 | 0.77 | 0.77 | 89 | 1010.0 |
| 20260509142508 | 63 | 249 | 3.0 | 6.0 | 0.01 | 0.77 | 0.77 | 89 | 1010.0 |
| 20260509142307 | 63 | 249 | 3.0 | 6.0 | 0.01 | 0.77 | 0.77 | 89 | 1010.0 |
| 20260509142106 | 63 | 307 | 3.0 | 6.0 | 0.01 | 0.77 | 0.77 | 90 | 1010.1 |
| 20260509142009 | 63 | 259 | 3.0 | 6.0 | 0.01 | 0.77 | 0.77 | 90 | 1010.1 |
| 20260509141906 | 62 | 259 | 3.0 | 6.0 | 0.01 | 0.77 | 0.77 | 90 | 1010.1 |
| 20260509141806 | 62 | 259 | 2.0 | 6.0 | 0.02 | 0.77 | 0.77 | 90 | 1010.1 |
| 20260509141706 | 62 | 241 | 2.0 | 5.0 | 0.02 | 0.77 | 0.77 | 90 | 1010.1 |
| 20260509141609 | 62 | 244 | 2.0 | 5.0 | 0.02 | 0.77 | 0.77 | 90 | 1010.1 |
| 20260509141508 | 62 | 335 | 1.0 | 5.0 | 0.02 | 0.77 | 0.77 | 91 | 1010.1 |
| 20260509141307 | 62 | 277 | 1.0 | 3.0 | 0.02 | 0.77 | 0.77 | 91 | 1010.1 |
| 20260509141206 | 62 | 359 | 1.0 | 3.0 | 0.02 | 0.77 | 0.77 | 91 | 1010.1 |
| 20260509141108 | 61 | 251 | 1.0 | 3.0 | 0.02 | 0.77 | 0.77 | 91 | 1010.1 |
| 20260509141009 | 61 | 23 | 1.0 | 3.0 | 0.02 | 0.77 | 0.77 | 91 | 1010.1 |
| 20260509140906 | 61 | 303 | 1.0 | 3.0 | 0.02 | 0.77 | 0.77 | 91 | 1010.0 |
| 20260509140806 | 61 | 325 | 1.0 | 3.0 | 0.02 | 0.77 | 0.77 | 91 | 1009.9 |
| 20260509140707 | 61 | 29 | 1.0 | 3.0 | 0.02 | 0.77 | 0.77 | 92 | 1010.0 |
| 20260509140608 | 61 | 29 | 1.0 | 2.0 | 0.02 | 0.77 | 0.77 | 92 | 1010.0 |
| 20260509140510 | 61 | 29 | 1.0 | 4.0 | 0.02 | 0.77 | 0.77 | 92 | 1010.0 |
| 20260509140407 | 61 | 29 | 1.0 | 4.0 | 0.02 | 0.77 | 0.77 | 92 | 1010.0 |
| 20260509140308 | 61 | 29 | 1.0 | 4.0 | 0.02 | 0.77 | 0.77 | 92 | 1009.9 |
| 20260509140207 | 61 | 29 | 1.0 | 4.0 | 0.02 | 0.77 | 0.77 | 92 | 1009.9 |
| 20260509140107 | 61 | 29 | 2.0 | 4.0 | 0.02 | 0.77 | 0.77 | 92 | 1009.9 |
| 20260509140008 | 61 | 325 | 2.0 | 4.0 | 0.02 | 0.77 | 0.77 | 92 | 1010.0 |
| 20260509135907 | 61 | 325 | 2.0 | 4.0 | 0.02 | 0.77 | 0.77 | 92 | 1010.0 |
| 20260509135707 | 61 | 325 | 2.0 | 4.0 | 0.02 | 0.77 | 0.77 | 92 | 1010.0 |
| 20260509135406 | 61 | 321 | 2.0 | 6.0 | 0.02 | 0.77 | 0.77 | 92 | 1010.1 |
| 20260509135306 | 61 | 320 | 3.0 | 8.0 | 0.02 | 0.77 | 0.77 | 92 | 1010.0 |
| 20260509135207 | 61 | 320 | 3.0 | 8.0 | 0.02 | 0.77 | 0.77 | 92 | 1010.1 |
| 20260509135109 | 61 | 303 | 3.0 | 8.0 | 0.02 | 0.77 | 0.77 | 92 | 1010.1 |
| 20260509135011 | 61 | 256 | 3.0 | 8.0 | 0.02 | 0.77 | 0.77 | 92 | 1010.0 |
| 20260509134907 | 61 | 339 | 3.0 | 8.0 | 0.02 | 0.77 | 0.77 | 92 | 1010.0 |
| 20260509134807 | 61 | 279 | 3.0 | 8.0 | 0.03 | 0.77 | 0.77 | 92 | 1009.9 |
| 20260509134509 | 61 | 278 | 2.0 | 8.0 | 0.03 | 0.77 | 0.77 | 93 | 1009.9 |
| 20260509134407 | 61 | 319 | 2.0 | 6.0 | 0.03 | 0.77 | 0.77 | 93 | 1009.9 |
| 20260509134206 | 61 | 207 | 2.0 | 6.0 | 0.03 | 0.77 | 0.77 | 92 | 1009.8 |
| 20260509134107 | 61 | 193 | 2.0 | 6.0 | 0.03 | 0.77 | 0.77 | 93 | 1009.8 |
| 20260509134009 | 61 | 192 | 2.0 | 6.0 | 0.03 | 0.77 | 0.77 | 93 | 1009.7 |
| 20260509133806 | 61 | 189 | 3.0 | 6.0 | 0.03 | 0.77 | 0.77 | 93 | 1009.8 |
| 20260509133709 | 61 | 260 | 3.0 | 8.0 | 0.02 | 0.76 | 0.76 | 93 | 1009.8 |
| 20260509133607 | 61 | 289 | 4.0 | 8.0 | 0.03 | 0.76 | 0.76 | 93 | 1009.7 |
| 20260509133510 | 61 | 301 | 4.0 | 11.0 | 0.03 | 0.76 | 0.76 | 93 | 1009.7 |
| 20260509133407 | 61 | 8 | 5.0 | 11.0 | 0.03 | 0.76 | 0.76 | 93 | 1009.7 |
| 20260509133307 | 61 | 270 | 5.0 | 11.0 | 0.03 | 0.76 | 0.76 | 93 | 1009.5 |
| 20260509133207 | 61 | 48 | 6.0 | 11.0 | 0.03 | 0.76 | 0.76 | 93 | 1009.4 |
| 20260509133108 | 61 | 33 | 6.0 | 11.0 | 0.03 | 0.76 | 0.76 | 93 | 1009.3 |
| 20260509133011 | 60 | 88 | 6.0 | 11.0 | 0.04 | 0.76 | 0.76 | 93 | 1009.3 |
| 20260509132906 | 60 | 58 | 7.0 | 11.0 | 0.04 | 0.76 | 0.76 | 93 | 1009.1 |
| 20260509132808 | 60 | 52 | 7.0 | 11.0 | 0.04 | 0.76 | 0.76 | 93 | 1009.1 |
| 20260509132706 | 60 | 64 | 7.0 | 11.0 | 0.05 | 0.76 | 0.76 | 93 | 1009.0 |
| 20260509132606 | 60 | 54 | 6.0 | 11.0 | 0.05 | 0.76 | 0.76 | 93 | 1008.9 |
| 20260509132507 | 60 | 62 | 6.0 | 11.0 | 0.06 | 0.76 | 0.76 | 93 | 1008.9 |
| 20260509132407 | 60 | 50 | 6.0 | 11.0 | 0.06 | 0.76 | 0.76 | 93 | 1008.9 |
| 20260509132307 | 60 | 66 | 6.0 | 11.0 | 0.06 | 0.76 | 0.76 | 93 | 1008.9 |
| 20260509132107 | 60 | 46 | 6.0 | 11.0 | 0.06 | 0.76 | 0.76 | 93 | 1009.0 |
| 20260509132010 | 60 | 63 | 5.0 | 10.0 | 0.06 | 0.76 | 0.76 | 93 | 1009.3 |
| 20260509131908 | 60 | 56 | 5.0 | 10.0 | 0.06 | 0.76 | 0.76 | 93 | 1009.3 |
| 20260509131706 | 60 | 36 | 4.0 | 10.0 | 0.06 | 0.76 | 0.76 | 93 | 1009.5 |
| 20260509131606 | 60 | 47 | 5.0 | 10.0 | 0.07 | 0.76 | 0.76 | 93 | 1009.5 |
| 20260509131508 | 60 | 71 | 4.0 | 10.0 | 0.07 | 0.76 | 0.76 | 93 | 1009.5 |
| 20260509131407 | 60 | 53 | 4.0 | 10.0 | 0.08 | 0.76 | 0.76 | 93 | 1009.6 |
| 20260509131308 | 60 | 47 | 4.0 | 10.0 | 0.08 | 0.76 | 0.76 | 93 | 1009.6 |
| 20260509131206 | 60 | 50 | 4.0 | 9.0 | 0.08 | 0.75 | 0.75 | 93 | 1009.6 |
| 20260509131107 | 60 | 56 | 4.0 | 9.0 | 0.08 | 0.75 | 0.75 | 93 | 1009.7 |
| 20260509131008 | 60 | 62 | 4.0 | 9.0 | 0.08 | 0.75 | 0.75 | 93 | 1009.7 |
| 20260509130907 | 60 | 94 | 4.0 | 9.0 | 0.08 | 0.75 | 0.75 | 93 | 1009.6 |
| 20260509130806 | 60 | 74 | 3.0 | 9.0 | 0.09 | 0.75 | 0.75 | 93 | 1009.5 |
| 20260509130606 | 60 | 19 | 3.0 | 8.0 | 0.09 | 0.75 | 0.75 | 93 | 1009.5 |
| 20260509130406 | 60 | 164 | 3.0 | 8.0 | 0.10 | 0.75 | 0.75 | 93 | 1009.6 |
| 20260509130206 | 59 | 89 | 3.0 | 6.0 | 0.10 | 0.75 | 0.75 | 93 | 1009.8 |
| 20260509130110 | 60 | 41 | 3.0 | 6.0 | 0.10 | 0.75 | 0.75 | 93 | 1009.8 |
| 20260509130011 | 60 | 28 | 3.0 | 6.0 | 0.11 | 0.75 | 0.75 | 93 | 1010.1 |
| 20260509125906 | 60 | 318 | 4.0 | 6.0 | 0.12 | 0.75 | 0.75 | 93 | 1010.3 |
| 20260509125807 | 59 | 318 | 4.0 | 8.0 | 0.12 | 0.75 | 0.75 | 93 | 1010.4 |
| 20260509125707 | 59 | 318 | 5.0 | 8.0 | 0.12 | 0.75 | 0.75 | 93 | 1010.4 |
| 20260509125606 | 59 | 302 | 5.0 | 8.0 | 0.12 | 0.75 | 0.75 | 93 | 1010.5 |
| 20260509125508 | 60 | 320 | 5.0 | 10.0 | 0.13 | 0.75 | 0.75 | 93 | 1010.6 |
| 20260509125406 | 59 | 330 | 5.0 | 10.0 | 0.13 | 0.75 | 0.75 | 93 | 1010.6 |
| 20260509125308 | 59 | 347 | 6.0 | 10.0 | 0.13 | 0.75 | 0.75 | 93 | 1010.7 |
| 20260509125207 | 59 | 285 | 6.0 | 10.0 | 0.13 | 0.75 | 0.75 | 93 | 1010.8 |